Time,TemperatureF,DewpointF,PressureIn,WindDirection,WindDirectionDegrees,WindSpeedMPH,WindSpeedGustMPH,Humidity,HourlyPrecipIn,Conditions,Clouds,dailyrainin,SolarRadiationWatts/m^2,SoftwareType,DateUTC
2013-10-21 00:00:00,65.6,19.0,29.41,NNE,14,4.0,4.2,16,-99.99,,,0.00,0,rob ver 1B,2013-10-21 07:00:00,
2013-10-21 00:01:00,65.6,19.0,29.41,NNE,13,3.8,4.0,16,-99.99,,,0.00,0,rob ver 1B,2013-10-21 07:01:00,
2013-10-21 00:02:00,65.8,18.9,29.41,NNE,12,4.1,4.5,16,-99.99,,,0.00,0,rob ver 1B,2013-10-21 07:02:00,
2013-10-21 00:03:00,72.9,35.0,29.35,SW,227,1.7,2.7,24,-99.99,,,0.00,0,rob ver 1A,2013-10-21 07:03:00,
2013-10-21 00:04:00,66.1,18.1,29.41,North,8,4.3,4.7,15,-99.99,,,0.00,0,rob ver 1B,2013-10-21 07:04:00,
2013-10-21 00:05:00,66.2,17.9,29.41,North,10,4.1,4.5,15,-99.99,,,0.00,0,rob ver 1B,2013-10-21 07:05:00,
2013-10-21 00:06:00,66.2,17.8,29.41,NNE,12,3.4,4.1,15,-99.99,,,0.00,0,rob ver 1B,2013-10-21 07:06:00,
2013-10-21 00:07:00,66.0,17.9,29.41,North,11,3.7,4.5,15,-99.99,,,0.00,0,rob ver 1B,2013-10-21 07:07:00,
2013-10-21 00:08:00,72.6,35.2,29.35,SSW,208,0.7,0.9,25,-99.99,,,0.00,0,rob ver 1A,2013-10-21 07:08:00,
2013-10-21 00:09:00,65.7,18.6,29.41,NNE,13,4.2,4.5,16,-99.99,,,0.00,0,rob ver 1B,2013-10-21 07:09:00,
2013-10-21 00:10:00,65.7,18.7,29.41,NNE,16,4.1,4.5,16,-99.99,,,0.00,0,rob ver 1B,2013-10-21 07:10:00,
2013-10-21 00:11:00,65.7,18.5,29.41,NNE,19,3.8,4.2,16,-99.99,,,0.00,0,rob ver 1B,2013-10-21 07:11:00,
2013-10-21 00:12:00,65.6,18.8,29.41,NNE,15,3.7,3.9,16,-99.99,,,0.00,0,rob ver 1B,2013-10-21 07:12:00,
2013-10-21 00:13:00,72.4,35.3,29.35,WNW,299,2.6,3.1,25,-99.99,,,0.00,0,rob ver 1A,2013-10-21 07:13:00,
2013-10-21 00:14:00,65.7,18.7,29.41,NNE,18,2.1,3.0,16,-99.99,,,0.00,0,rob ver 1B,2013-10-21 07:14:00,
2013-10-21 00:15:00,65.6,19.1,29.41,ENE,62,0.6,1.4,16,-99.99,,,0.00,0,rob ver 1B,2013-10-21 07:15:00,
2013-10-21 00:16:00,65.6,19.3,29.41,SE,133,1.4,2.3,16,-99.99,,,0.00,0,rob ver 1B,2013-10-21 07:16:00,
2013-10-21 00:17:00,65.5,18.7,29.41,South,171,3.9,5.2,16,-99.99,,,0.00,0,rob ver 1B,2013-10-21 07:17:00,
2013-10-21 00:18:00,72.0,34.5,29.35,West,269,2.0,2.6,25,-99.99,,,0.00,0,rob ver 1A,2013-10-21 07:18:00,
2013-10-21 00:19:00,64.7,19.2,29.41,South,183,4.1,4.5,17,-99.99,,,0.00,0,rob ver 1B,2013-10-21 07:19:00,
2013-10-21 00:20:00,64.3,19.1,29.41,South,190,3.4,4.1,17,-99.99,,,0.00,0,rob ver 1B,2013-10-21 07:20:00,
2013-10-21 00:21:00,64.2,19.2,29.41,SSW,192,2.5,3.1,17,-99.99,,,0.00,0,rob ver 1B,2013-10-21 07:21:00,
2013-10-21 00:22:00,64.4,19.2,29.41,South,190,2.3,2.5,17,-99.99,,,0.00,0,rob ver 1B,2013-10-21 07:22:00,
2013-10-21 00:23:00,70.4,34.9,29.35,West,279,2.3,2.6,27,-99.99,,,0.00,0,rob ver 1A,2013-10-21 07:23:00,
2013-10-21 00:24:00,65.2,19.1,29.41,SSE,166,1.5,1.8,16,-99.99,,,0.00,0,rob ver 1B,2013-10-21 07:24:00,
2013-10-21 00:25:00,65.5,18.7,29.41,SSE,152,1.5,1.8,16,-99.99,,,0.00,0,rob ver 1B,2013-10-21 07:25:00,
2013-10-21 00:26:00,65.7,18.7,29.41,SE,142,1.3,1.5,16,-99.99,,,0.00,0,rob ver 1B,2013-10-21 07:26:00,
2013-10-21 00:27:00,65.8,18.7,29.41,SE,129,1.2,1.5,16,-99.99,,,0.00,0,rob ver 1B,2013-10-21 07:27:00,
2013-10-21 00:28:00,70.4,34.8,29.35,WSW,258,2.5,3.0,26,-99.99,,,0.00,0,rob ver 1A,2013-10-21 07:28:00,
2013-10-21 00:29:00,66.2,18.3,29.41,East,91,1.7,2.0,15,-99.99,,,0.00,0,rob ver 1B,2013-10-21 07:29:00,
2013-10-21 00:30:00,66.2,17.9,29.41,ENE,74,2.4,3.1,15,-99.99,,,0.00,0,rob ver 1B,2013-10-21 07:30:00,
2013-10-21 00:31:00,65.9,17.9,29.41,ENE,71,3.0,3.3,15,-99.99,,,0.00,0,rob ver 1B,2013-10-21 07:31:00,
2013-10-21 00:32:00,65.6,18.4,29.41,ENE,67,3.2,3.5,16,-99.99,,,0.00,0,rob ver 1B,2013-10-21 07:32:00,
2013-10-21 00:33:00,71.1,34.8,29.35,West,281,2.9,3.1,26,-99.99,,,0.00,0,rob ver 1A,2013-10-21 07:33:00,
2013-10-21 00:34:00,65.1,19.4,29.41,ENE,67,3.6,4.1,17,-99.99,,,0.00,0,rob ver 1B,2013-10-21 07:34:00,
2013-10-21 00:35:00,65.0,19.5,29.41,ENE,72,3.7,4.1,17,-99.99,,,0.00,0,rob ver 1B,2013-10-21 07:35:00,
2013-10-21 00:36:00,65.0,19.4,29.41,ENE,75,3.2,3.9,17,-99.99,,,0.00,0,rob ver 1B,2013-10-21 07:36:00,
2013-10-21 00:37:00,65.0,19.2,29.41,East,79,3.2,3.7,16,-99.99,,,0.00,0,rob ver 1B,2013-10-21 07:37:00,
2013-10-21 00:38:00,70.7,34.4,29.35,WNW,291,2.6,3.2,26,-99.99,,,0.00,0,rob ver 1A,2013-10-21 07:38:00,
2013-10-21 00:39:00,64.9,19.1,29.41,ENE,76,3.6,4.0,16,-99.99,,,0.00,0,rob ver 1B,2013-10-21 07:39:00,
2013-10-21 00:40:00,65.0,19.4,29.41,ENE,76,3.0,3.8,16,-99.99,,,0.00,0,rob ver 1B,2013-10-21 07:40:00,
2013-10-21 00:41:00,65.1,19.0,29.41,ENE,61,3.3,3.7,16,-99.99,,,0.00,0,rob ver 1B,2013-10-21 07:41:00,
2013-10-21 00:42:00,65.0,19.0,29.41,NE,54,3.0,3.4,17,-99.99,,,0.00,0,rob ver 1B,2013-10-21 07:42:00,
2013-10-21 00:43:00,65.0,18.9,29.41,NE,41,3.4,3.6,16,-99.99,,,0.00,0,rob ver 1B,2013-10-21 07:43:00,
2013-10-21 00:44:00,70.5,34.6,29.35,WNW,298,3.0,3.1,27,-99.99,,,0.00,0,rob ver 1A,2013-10-21 07:44:00,
2013-10-21 00:45:00,64.7,19.2,29.41,NNE,23,3.6,3.8,17,-99.99,,,0.00,0,rob ver 1B,2013-10-21 07:45:00,
2013-10-21 00:46:00,64.7,19.2,29.41,NNE,18,3.8,4.0,17,-99.99,,,0.00,0,rob ver 1B,2013-10-21 07:46:00,
2013-10-21 00:47:00,65.0,19.3,29.41,NNE,12,3.9,4.1,17,-99.99,,,0.00,0,rob ver 1B,2013-10-21 07:47:00,
2013-10-21 00:48:00,65.2,19.1,29.41,North,11,3.7,4.1,16,-99.99,,,0.00,0,rob ver 1B,2013-10-21 07:48:00,
2013-10-21 00:49:00,69.0,34.0,29.35,WNW,292,3.0,3.3,27,-99.99,,,0.00,0,rob ver 1A,2013-10-21 07:49:00,
2013-10-21 00:50:00,65.2,19.0,29.41,NNE,12,3.7,3.8,16,-99.99,,,0.00,0,rob ver 1B,2013-10-21 07:50:00,
2013-10-21 00:51:00,65.1,19.2,29.41,North,8,3.7,3.8,16,-99.99,,,0.00,0,rob ver 1B,2013-10-21 07:51:00,
2013-10-21 00:52:00,65.0,19.3,29.41,NNE,14,3.5,3.7,17,-99.99,,,0.00,0,rob ver 1B,2013-10-21 07:52:00,
2013-10-21 00:53:00,64.8,19.3,29.41,NNE,13,3.4,3.6,17,-99.99,,,0.00,0,rob ver 1B,2013-10-21 07:53:00,
2013-10-21 00:54:00,68.2,34.6,29.35,West,277,3.3,3.8,28,-99.99,,,0.00,0,rob ver 1A,2013-10-21 07:54:00,
2013-10-21 00:55:00,64.5,19.3,29.41,North,1,3.9,4.1,17,-99.99,,,0.00,0,rob ver 1B,2013-10-21 07:55:00,
2013-10-21 00:56:00,64.3,19.5,29.41,North,358,3.7,4.0,17,-99.99,,,0.00,0,rob ver 1B,2013-10-21 07:56:00,
2013-10-21 00:57:00,64.1,19.7,29.41,North,359,3.4,3.6,18,-99.99,,,0.00,0,rob ver 1B,2013-10-21 07:57:00,
2013-10-21 00:58:00,64.0,19.8,29.41,North,356,3.3,3.4,18,-99.99,,,0.00,0,rob ver 1B,2013-10-21 07:58:00,
2013-10-21 00:59:00,69.0,34.4,29.35,West,262,2.9,3.2,27,-99.99,,,0.00,0,rob ver 1A,2013-10-21 07:59:00,
2013-10-21 01:00:00,63.8,20.0,29.41,North,353,3.5,3.7,18,-99.99,,,0.00,0,rob ver 1B,2013-10-21 08:00:00,
2013-10-21 01:01:00,63.8,20.1,29.41,NNW,346,3.5,3.7,18,-99.99,,,0.00,0,rob ver 1B,2013-10-21 08:01:00,
2013-10-21 01:02:00,64.1,20.2,29.41,NNW,342,3.0,3.4,18,-99.99,,,0.00,0,rob ver 1B,2013-10-21 08:02:00,
2013-10-21 01:03:00,64.3,20.1,29.41,NNW,342,2.7,2.9,18,-99.99,,,0.00,0,rob ver 1B,2013-10-21 08:03:00,
2013-10-21 01:04:00,69.9,35.0,29.35,SW,230,3.5,3.8,27,-99.99,,,0.00,0,rob ver 1A,2013-10-21 08:04:00,
2013-10-21 01:05:00,65.0,21.0,29.41,NNW,343,2.1,2.3,18,-99.99,,,0.00,0,rob ver 1B,2013-10-21 08:05:00,
2013-10-21 01:06:00,65.5,21.5,29.41,NNW,342,1.8,2.1,18,-99.99,,,0.00,0,rob ver 1B,2013-10-21 08:06:00,
2013-10-21 01:07:00,66.0,21.9,29.41,NNW,342,1.6,1.9,18,-99.99,,,0.00,0,rob ver 1B,2013-10-21 08:07:00,
2013-10-21 01:08:00,66.5,22.2,29.41,NNW,340,1.5,1.6,18,-99.99,,,0.00,0,rob ver 1B,2013-10-21 08:08:00,
2013-10-21 01:09:00,69.7,34.2,29.35,West,278,3.1,3.4,26,-99.99,,,0.00,0,rob ver 1A,2013-10-21 08:09:00,
2013-10-21 01:10:00,67.2,21.9,29.41,North,351,1.8,1.9,17,-99.99,,,0.00,0,rob ver 1B,2013-10-21 08:10:00,
2013-10-21 01:11:00,67.1,20.7,29.41,North,1,1.9,2.0,16,-99.99,,,0.00,0,rob ver 1B,2013-10-21 08:11:00,
2013-10-21 01:12:00,66.8,20.5,29.41,North,4,1.8,2.0,16,-99.99,,,0.00,0,rob ver 1B,2013-10-21 08:12:00,
2013-10-21 01:13:00,66.5,20.5,29.41,North,5,1.5,1.7,17,-99.99,,,0.00,0,rob ver 1B,2013-10-21 08:13:00,
2013-10-21 01:14:00,68.8,34.1,29.35,NW,308,2.1,3.1,28,-99.99,,,0.00,0,rob ver 1A,2013-10-21 08:14:00,
2013-10-21 01:15:00,65.9,21.0,29.41,North,7,1.3,1.4,17,-99.99,,,0.00,0,rob ver 1B,2013-10-21 08:15:00,
2013-10-21 01:16:00,65.8,21.2,29.41,North,354,1.2,1.3,18,-99.99,,,0.00,0,rob ver 1B,2013-10-21 08:16:00,
2013-10-21 01:17:00,65.7,21.3,29.41,North,1,1.5,1.6,18,-99.99,,,0.00,0,rob ver 1B,2013-10-21 08:17:00,
2013-10-21 01:18:00,65.6,21.2,29.41,NNE,23,1.5,1.6,18,-99.99,,,0.00,0,rob ver 1B,2013-10-21 08:18:00,
2013-10-21 01:19:00,67.7,33.3,29.35,NNW,341,2.1,2.6,27,-99.99,,,0.00,0,rob ver 1A,2013-10-21 08:19:00,
2013-10-21 01:20:00,65.4,22.1,29.41,NNW,348,1.0,1.3,18,-99.99,,,0.00,0,rob ver 1B,2013-10-21 08:20:00,
2013-10-21 01:21:00,65.6,22.2,29.41,NNW,347,0.9,1.1,18,-99.99,,,0.00,0,rob ver 1B,2013-10-21 08:21:00,
2013-10-21 01:22:00,65.7,22.7,29.41,NNW,343,1.0,1.2,19,-99.99,,,0.00,0,rob ver 1B,2013-10-21 08:22:00,
2013-10-21 01:23:00,66.1,23.2,29.41,NNW,343,1.2,1.4,19,-99.99,,,0.00,0,rob ver 1B,2013-10-21 08:23:00,
2013-10-21 01:24:00,67.5,33.8,29.35,North,354,2.1,2.2,28,-99.99,,,0.00,0,rob ver 1A,2013-10-21 08:24:00,
2013-10-21 01:25:00,66.8,23.4,29.41,NNW,345,1.5,1.7,19,-99.99,,,0.00,0,rob ver 1B,2013-10-21 08:25:00,
2013-10-21 01:26:00,67.1,23.3,29.41,NNW,342,1.6,1.7,18,-99.99,,,0.00,0,rob ver 1B,2013-10-21 08:26:00,
2013-10-21 01:27:00,67.3,23.0,29.41,NNW,342,1.6,1.7,18,-99.99,,,0.00,0,rob ver 1B,2013-10-21 08:27:00,
2013-10-21 01:28:00,67.4,22.4,29.41,NNW,345,1.9,2.1,17,-99.99,,,0.00,0,rob ver 1B,2013-10-21 08:28:00,
2013-10-21 01:29:00,66.9,33.4,29.35,North,7,3.5,3.8,28,-99.99,,,0.00,0,rob ver 1A,2013-10-21 08:29:00,
2013-10-21 01:30:00,67.5,21.6,29.41,North,355,2.7,3.4,17,-99.99,,,0.00,0,rob ver 1B,2013-10-21 08:30:00,
2013-10-21 01:31:00,67.2,21.5,29.41,North,352,3.6,4.0,17,-99.99,,,0.00,0,rob ver 1B,2013-10-21 08:31:00,
2013-10-21 01:32:00,66.7,21.1,29.41,NNW,345,3.9,4.1,17,-99.99,,,0.00,0,rob ver 1B,2013-10-21 08:32:00,
2013-10-21 01:33:00,66.3,22.2,29.41,NNW,348,3.5,4.0,18,-99.99,,,0.00,0,rob ver 1B,2013-10-21 08:33:00,
2013-10-21 01:34:00,65.8,21.0,29.41,North,349,4.3,4.7,18,-99.99,,,0.00,0,rob ver 1B,2013-10-21 08:34:00,
2013-10-21 01:35:00,67.1,33.0,29.35,NNW,342,2.9,3.1,27,-99.99,,,0.00,0,rob ver 1A,2013-10-21 08:35:00,
2013-10-21 01:36:00,64.5,21.0,29.41,NNW,348,4.3,4.5,19,-99.99,,,0.00,0,rob ver 1B,2013-10-21 08:36:00,
2013-10-21 01:37:00,64.1,21.3,29.41,NNW,346,4.2,4.4,19,-99.99,,,0.00,0,rob ver 1B,2013-10-21 08:37:00,
2013-10-21 01:38:00,63.9,21.5,29.41,NNW,347,4.4,4.6,19,-99.99,,,0.00,0,rob ver 1B,2013-10-21 08:38:00,
2013-10-21 01:39:00,63.6,21.4,29.41,North,352,4.6,4.7,19,-99.99,,,0.00,0,rob ver 1B,2013-10-21 08:39:00,
2013-10-21 01:40:00,66.1,33.0,29.35,NNW,336,3.2,3.5,29,-99.99,,,0.00,0,rob ver 1A,2013-10-21 08:40:00,
2013-10-21 01:41:00,63.2,21.4,29.41,North,358,4.7,4.9,20,-99.99,,,0.00,0,rob ver 1B,2013-10-21 08:41:00,
2013-10-21 01:42:00,62.9,21.4,29.41,North,357,4.6,4.8,20,-99.99,,,0.00,0,rob ver 1B,2013-10-21 08:42:00,
2013-10-21 01:43:00,62.8,21.5,29.41,North,355,4.4,4.5,20,-99.99,,,0.00,0,rob ver 1B,2013-10-21 08:43:00,
2013-10-21 01:44:00,62.8,21.6,29.41,North,358,4.3,4.4,20,-99.99,,,0.00,0,rob ver 1B,2013-10-21 08:44:00,
2013-10-21 01:45:00,65.0,32.4,29.35,NNW,338,3.3,3.5,30,-99.99,,,0.00,0,rob ver 1A,2013-10-21 08:45:00,
2013-10-21 01:46:00,62.8,21.6,29.41,North,3,4.3,4.5,20,-99.99,,,0.00,0,rob ver 1B,2013-10-21 08:46:00,
2013-10-21 01:47:00,62.8,21.6,29.41,North,6,4.4,4.6,20,-99.99,,,0.00,0,rob ver 1B,2013-10-21 08:47:00,
2013-10-21 01:48:00,62.9,21.6,29.41,North,10,4.2,4.5,20,-99.99,,,0.00,0,rob ver 1B,2013-10-21 08:48:00,
2013-10-21 01:49:00,62.8,21.4,29.41,NNE,15,3.5,3.8,20,-99.99,,,0.00,0,rob ver 1B,2013-10-21 08:49:00,
2013-10-21 01:50:00,65.8,33.4,29.35,NW,322,2.9,3.2,29,-99.99,,,0.00,0,rob ver 1A,2013-10-21 08:50:00,
2013-10-21 01:51:00,62.6,21.4,29.41,NNE,24,2.6,3.3,20,-99.99,,,0.00,0,rob ver 1B,2013-10-21 08:51:00,
2013-10-21 01:52:00,62.4,21.6,29.41,NNE,27,2.3,2.8,20,-99.99,,,0.00,0,rob ver 1B,2013-10-21 08:52:00,
2013-10-21 01:53:00,62.3,21.6,29.41,NNE,30,2.9,3.2,20,-99.99,,,0.00,0,rob ver 1B,2013-10-21 08:53:00,
2013-10-21 01:54:00,62.3,21.9,29.41,NNE,33,2.7,3.6,21,-99.99,,,0.00,0,rob ver 1B,2013-10-21 08:54:00,
2013-10-21 01:55:00,66.6,33.3,29.35,NW,325,2.5,2.8,28,-99.99,,,0.00,0,rob ver 1A,2013-10-21 08:55:00,
2013-10-21 01:56:00,62.4,22.1,29.41,NE,41,2.7,3.2,21,-99.99,,,0.00,0,rob ver 1B,2013-10-21 08:56:00,
2013-10-21 01:57:00,62.6,22.2,29.41,NE,44,2.7,3.2,21,-99.99,,,0.00,0,rob ver 1B,2013-10-21 08:57:00,
2013-10-21 01:58:00,62.8,22.4,29.41,NE,47,3.0,3.5,21,-99.99,,,0.00,0,rob ver 1B,2013-10-21 08:58:00,
2013-10-21 01:59:00,63.1,22.6,29.41,NE,43,3.5,4.2,20,-99.99,,,0.00,0,rob ver 1B,2013-10-21 08:59:00,
2013-10-21 02:00:00,66.0,32.9,29.35,NNW,340,3.2,3.9,28,-99.99,,,0.00,0,rob ver 1A,2013-10-21 09:00:00,
2013-10-21 02:01:00,63.4,22.4,29.41,NE,49,2.6,3.2,20,-99.99,,,0.00,0,rob ver 1B,2013-10-21 09:01:00,
2013-10-21 02:02:00,63.4,22.3,29.41,NE,48,2.5,3.2,20,-99.99,,,0.00,0,rob ver 1B,2013-10-21 09:02:00,
2013-10-21 02:03:00,63.3,22.0,29.41,NE,46,2.7,3.3,20,-99.99,,,0.00,0,rob ver 1B,2013-10-21 09:03:00,
2013-10-21 02:04:00,63.1,21.8,29.41,NE,51,2.9,3.6,20,-99.99,,,0.00,0,rob ver 1B,2013-10-21 09:04:00,
2013-10-21 02:05:00,66.0,32.4,29.35,NNW,342,4.0,4.4,28,-99.99,,,0.00,0,rob ver 1A,2013-10-21 09:05:00,
2013-10-21 02:06:00,62.6,21.1,29.41,NE,45,3.1,4.0,20,-99.99,,,0.00,0,rob ver 1B,2013-10-21 09:06:00,
2013-10-21 02:07:00,62.3,20.9,29.41,NE,41,2.6,3.5,20,-99.99,,,0.00,0,rob ver 1B,2013-10-21 09:07:00,
2013-10-21 02:08:00,62.0,20.9,29.44,NE,44,3.4,4.0,20,-99.99,,,0.00,0,rob ver 1B,2013-10-21 09:08:00,
2013-10-21 02:09:00,61.9,20.7,29.41,NE,48,3.3,4.1,20,-99.99,,,0.00,0,rob ver 1B,2013-10-21 09:09:00,
2013-10-21 02:10:00,61.8,20.6,29.44,NE,51,3.3,4.3,20,-99.99,,,0.00,0,rob ver 1B,2013-10-21 09:10:00,
2013-10-21 02:11:00,65.1,32.1,29.35,NNW,346,3.9,4.2,29,-99.99,,,0.00,0,rob ver 1A,2013-10-21 09:11:00,
2013-10-21 02:12:00,61.7,20.3,29.44,NE,48,3.7,4.3,20,-99.99,,,0.00,0,rob ver 1B,2013-10-21 09:12:00,
2013-10-21 02:13:00,61.6,20.2,29.41,NE,42,3.4,4.1,20,-99.99,,,0.00,0,rob ver 1B,2013-10-21 09:13:00,
2013-10-21 02:14:00,61.6,20.2,29.41,NE,36,3.4,3.8,20,-99.99,,,0.00,0,rob ver 1B,2013-10-21 09:14:00,
2013-10-21 02:15:00,61.5,20.1,29.41,NNE,33,3.2,3.6,20,-99.99,,,0.00,0,rob ver 1B,2013-10-21 09:15:00,
2013-10-21 02:16:00,64.8,31.9,29.35,NNE,21,4.6,4.9,28,-99.99,,,0.00,0,rob ver 1A,2013-10-21 09:16:00,
2013-10-21 02:17:00,61.3,20.0,29.44,NNE,29,3.5,3.9,20,-99.99,,,0.00,0,rob ver 1B,2013-10-21 09:17:00,
2013-10-21 02:18:00,61.4,20.3,29.41,NNE,23,3.3,3.6,20,-99.99,,,0.00,0,rob ver 1B,2013-10-21 09:18:00,
2013-10-21 02:19:00,61.6,20.4,29.41,NNE,15,3.1,3.2,20,-99.99,,,0.00,0,rob ver 1B,2013-10-21 09:19:00,
2013-10-21 02:20:00,61.7,20.4,29.41,North,8,2.8,3.0,19,-99.99,,,0.00,0,rob ver 1B,2013-10-21 09:20:00,
2013-10-21 02:21:00,64.9,31.5,29.35,North,9,5.1,5.3,28,-99.99,,,0.00,0,rob ver 1A,2013-10-21 09:21:00,
2013-10-21 02:22:00,61.8,20.0,29.41,North,359,2.3,2.8,19,-99.99,,,0.00,0,rob ver 1B,2013-10-21 09:22:00,
2013-10-21 02:23:00,61.7,19.9,29.41,NNW,343,1.8,2.0,19,-99.99,,,0.00,0,rob ver 1B,2013-10-21 09:23:00,
2013-10-21 02:24:00,61.5,20.2,29.41,NNW,332,1.8,1.9,20,-99.99,,,0.00,0,rob ver 1B,2013-10-21 09:24:00,
2013-10-21 02:25:00,61.4,20.6,29.41,NNW,333,2.0,2.5,20,-99.99,,,0.00,0,rob ver 1B,2013-10-21 09:25:00,
2013-10-21 02:26:00,64.5,31.3,29.35,North,0,4.3,4.4,28,-99.99,,,0.00,0,rob ver 1A,2013-10-21 09:26:00,
2013-10-21 02:27:00,61.3,20.9,29.41,North,357,2.7,3.0,20,-99.99,,,0.00,0,rob ver 1B,2013-10-21 09:27:00,
2013-10-21 02:28:00,61.4,20.7,29.41,North,6,2.8,3.0,20,-99.99,,,0.00,0,rob ver 1B,2013-10-21 09:28:00,
2013-10-21 02:29:00,61.5,20.5,29.41,North,6,2.7,2.9,20,-99.99,,,0.00,0,rob ver 1B,2013-10-21 09:29:00,
2013-10-21 02:30:00,61.5,20.2,29.41,North,9,2.5,2.7,20,-99.99,,,0.00,0,rob ver 1B,2013-10-21 09:30:00,
2013-10-21 02:31:00,64.8,33.1,29.35,NW,319,2.9,3.4,30,-99.99,,,0.00,0,rob ver 1A,2013-10-21 09:31:00,
2013-10-21 02:32:00,61.2,19.8,29.41,North,8,2.3,2.5,20,-99.99,,,0.00,0,rob ver 1B,2013-10-21 09:32:00,
2013-10-21 02:33:00,61.1,20.1,29.41,North,1,2.3,2.5,20,-99.99,,,0.00,0,rob ver 1B,2013-10-21 09:33:00,
2013-10-21 02:34:00,61.1,20.2,29.41,North,358,2.1,2.3,20,-99.99,,,0.00,0,rob ver 1B,2013-10-21 09:34:00,
2013-10-21 02:35:00,61.0,20.2,29.41,NNW,347,1.4,1.9,20,-99.99,,,0.00,0,rob ver 1B,2013-10-21 09:35:00,
2013-10-21 02:36:00,65.0,31.4,29.35,West,264,1.9,2.7,28,-99.99,,,0.00,0,rob ver 1A,2013-10-21 09:36:00,
2013-10-21 02:37:00,60.9,20.4,29.41,NNW,337,1.3,1.5,20,-99.99,,,0.00,0,rob ver 1B,2013-10-21 09:37:00,
2013-10-21 02:38:00,60.9,20.4,29.41,NW,322,1.5,1.6,20,-99.99,,,0.00,0,rob ver 1B,2013-10-21 09:38:00,
2013-10-21 02:39:00,60.9,20.5,29.41,NW,320,1.4,1.5,20,-99.99,,,0.00,0,rob ver 1B,2013-10-21 09:39:00,
2013-10-21 02:40:00,60.9,20.5,29.41,NW,313,1.6,1.7,20,-99.99,,,0.00,0,rob ver 1B,2013-10-21 09:40:00,
2013-10-21 02:41:00,62.1,32.2,29.35,WSW,246,2.3,2.6,32,-99.99,,,0.00,0,rob ver 1A,2013-10-21 09:41:00,
2013-10-21 02:42:00,61.1,20.4,29.41,NW,316,1.7,2.1,20,-99.99,,,0.00,0,rob ver 1B,2013-10-21 09:42:00,
2013-10-21 02:43:00,61.2,20.4,29.41,NNW,327,2.3,2.6,20,-99.99,,,0.00,0,rob ver 1B,2013-10-21 09:43:00,
2013-10-21 02:44:00,61.6,20.3,29.41,NNW,333,2.1,2.6,19,-99.99,,,0.00,0,rob ver 1B,2013-10-21 09:44:00,
2013-10-21 02:45:00,62.0,20.3,29.41,NW,326,1.8,2.0,19,-99.99,,,0.00,0,rob ver 1B,2013-10-21 09:45:00,
2013-10-21 02:46:00,61.0,32.0,29.35,West,263,1.1,1.2,33,-99.99,,,0.00,0,rob ver 1A,2013-10-21 09:46:00,
2013-10-21 02:47:00,62.6,20.5,29.41,NW,318,1.3,1.5,19,-99.99,,,0.00,0,rob ver 1B,2013-10-21 09:47:00,
2013-10-21 02:48:00,62.7,20.3,29.41,NNW,327,1.2,1.4,19,-99.99,,,0.00,0,rob ver 1B,2013-10-21 09:48:00,
2013-10-21 02:49:00,62.8,20.2,29.41,NW,313,1.3,1.5,19,-99.99,,,0.00,0,rob ver 1B,2013-10-21 09:49:00,
2013-10-21 02:50:00,62.9,20.3,29.41,NW,315,1.1,1.3,19,-99.99,,,0.00,0,rob ver 1B,2013-10-21 09:50:00,
2013-10-21 02:51:00,62.9,20.4,29.41,NW,315,1.2,1.4,19,-99.99,,,0.00,0,rob ver 1B,2013-10-21 09:51:00,
2013-10-21 02:52:00,61.5,32.0,29.35,NNW,344,3.3,3.7,32,-99.99,,,0.00,0,rob ver 1A,2013-10-21 09:52:00,
2013-10-21 02:53:00,63.0,20.4,29.41,NW,326,1.4,1.6,19,-99.99,,,0.00,0,rob ver 1B,2013-10-21 09:53:00,
2013-10-21 02:54:00,63.0,20.5,29.41,NW,323,1.4,1.6,19,-99.99,,,0.00,0,rob ver 1B,2013-10-21 09:54:00,
2013-10-21 02:55:00,63.0,20.4,29.41,NW,312,1.6,1.7,19,-99.99,,,0.00,0,rob ver 1B,2013-10-21 09:55:00,
2013-10-21 02:56:00,62.9,20.4,29.41,NW,306,1.6,1.8,19,-99.99,,,0.00,0,rob ver 1B,2013-10-21 09:56:00,
2013-10-21 02:57:00,62.7,32.3,29.35,North,357,4.1,4.5,31,-99.99,,,0.00,0,rob ver 1A,2013-10-21 09:57:00,
2013-10-21 02:58:00,62.9,20.6,29.41,NW,307,1.4,1.7,19,-99.99,,,0.00,0,rob ver 1B,2013-10-21 09:58:00,
2013-10-21 02:59:00,62.9,20.7,29.41,NW,312,1.3,1.5,19,-99.99,,,0.00,0,rob ver 1B,2013-10-21 09:59:00,
2013-10-21 03:00:00,62.9,20.6,29.41,NNW,327,1.4,1.7,19,-99.99,,,0.00,0,rob ver 1B,2013-10-21 10:00:00,
2013-10-21 03:01:00,62.9,20.3,29.41,NNW,342,1.4,1.6,19,-99.99,,,0.00,0,rob ver 1B,2013-10-21 10:01:00,
2013-10-21 03:02:00,62.4,31.9,29.35,NE,38,2.1,2.6,31,-99.99,,,0.00,0,rob ver 1A,2013-10-21 10:02:00,
2013-10-21 03:03:00,62.8,20.2,29.41,North,3,2.1,2.5,19,-99.99,,,0.00,0,rob ver 1B,2013-10-21 10:03:00,
2013-10-21 03:04:00,62.7,20.2,29.41,North,11,2.3,2.6,19,-99.99,,,0.00,0,rob ver 1B,2013-10-21 10:04:00,
2013-10-21 03:05:00,62.6,20.1,29.41,North,10,2.4,2.7,19,-99.99,,,0.00,0,rob ver 1B,2013-10-21 10:05:00,
2013-10-21 03:06:00,62.6,20.3,29.41,North,4,2.0,2.3,19,-99.99,,,0.00,0,rob ver 1B,2013-10-21 10:06:00,
2013-10-21 03:07:00,63.1,31.2,29.35,NW,318,1.0,2.0,30,-99.99,,,0.00,0,rob ver 1A,2013-10-21 10:07:00,
2013-10-21 03:08:00,62.6,20.2,29.41,North,2,1.7,2.1,19,-99.99,,,0.00,0,rob ver 1B,2013-10-21 10:08:00,
2013-10-21 03:09:00,62.6,20.2,29.41,North,353,1.9,2.1,19,-99.99,,,0.00,0,rob ver 1B,2013-10-21 10:09:00,
2013-10-21 03:10:00,62.6,20.2,29.41,NNW,345,1.7,2.1,19,-99.99,,,0.00,0,rob ver 1B,2013-10-21 10:10:00,
2013-10-21 03:11:00,62.7,20.3,29.41,NNW,347,2.1,2.3,19,-99.99,,,0.00,0,rob ver 1B,2013-10-21 10:11:00,
2013-10-21 03:12:00,61.6,32.0,29.35,West,276,1.6,3.5,32,-99.99,,,0.00,0,rob ver 1A,2013-10-21 10:12:00,
2013-10-21 03:13:00,62.7,20.3,29.41,NNW,340,2.4,2.6,19,-99.99,,,0.00,0,rob ver 1B,2013-10-21 10:13:00,
2013-10-21 03:14:00,62.9,20.4,29.41,NNW,343,2.5,2.6,19,-99.99,,,0.00,0,rob ver 1B,2013-10-21 10:14:00,
2013-10-21 03:15:00,63.0,20.4,29.41,North,352,2.6,2.8,19,-99.99,,,0.00,0,rob ver 1B,2013-10-21 10:15:00,
2013-10-21 03:16:00,63.2,20.4,29.41,North,359,2.8,2.9,19,-99.99,,,0.00,0,rob ver 1B,2013-10-21 10:16:00,
2013-10-21 03:17:00,61.6,31.7,29.35,NW,326,1.6,1.9,32,-99.99,,,0.00,0,rob ver 1A,2013-10-21 10:17:00,
2013-10-21 03:18:00,63.2,20.3,29.41,North,10,2.9,3.1,19,-99.99,,,0.00,0,rob ver 1B,2013-10-21 10:18:00,
2013-10-21 03:19:00,63.1,20.3,29.41,NNE,13,2.6,2.8,19,-99.99,,,0.00,0,rob ver 1B,2013-10-21 10:19:00,
2013-10-21 03:20:00,62.9,20.2,29.41,North,11,2.6,2.7,19,-99.99,,,0.00,0,rob ver 1B,2013-10-21 10:20:00,
2013-10-21 03:21:00,62.7,20.3,29.41,North,9,2.6,2.7,19,-99.99,,,0.00,0,rob ver 1B,2013-10-21 10:21:00,
2013-10-21 03:22:00,61.4,31.2,29.35,NNW,343,0.8,1.1,31,-99.99,,,0.00,0,rob ver 1A,2013-10-21 10:22:00,
2013-10-21 03:23:00,62.4,20.4,29.41,North,359,2.3,2.4,19,-99.99,,,0.00,0,rob ver 1B,2013-10-21 10:23:00,
2013-10-21 03:24:00,62.3,20.6,29.41,North,353,2.1,2.2,19,-99.99,,,0.00,0,rob ver 1B,2013-10-21 10:24:00,
2013-10-21 03:25:00,62.2,20.6,29.41,North,351,2.1,2.1,19,-99.99,,,0.00,0,rob ver 1B,2013-10-21 10:25:00,
2013-10-21 03:26:00,62.3,20.7,29.41,NNW,348,2.1,2.1,19,-99.99,,,0.00,0,rob ver 1B,2013-10-21 10:26:00,
2013-10-21 03:27:00,61.1,31.0,29.35,ESE,117,1.0,1.4,31,-99.99,,,0.00,0,rob ver 1A,2013-10-21 10:27:00,
2013-10-21 03:28:00,62.5,20.7,29.41,North,359,2.2,2.3,19,-99.99,,,0.00,0,rob ver 1B,2013-10-21 10:28:00,
2013-10-21 03:29:00,62.6,20.8,29.41,North,358,2.1,2.3,19,-99.99,,,0.00,0,rob ver 1B,2013-10-21 10:29:00,
2013-10-21 03:30:00,62.7,20.8,29.41,North,357,2.1,2.3,19,-99.99,,,0.00,0,rob ver 1B,2013-10-21 10:30:00,
2013-10-21 03:31:00,62.7,20.8,29.41,North,356,2.1,2.3,19,-99.99,,,0.00,0,rob ver 1B,2013-10-21 10:31:00,
2013-10-21 03:32:00,60.8,30.8,29.35,ESE,103,1.0,1.1,32,-99.99,,,0.00,0,rob ver 1A,2013-10-21 10:32:00,
2013-10-21 03:33:00,62.7,20.7,29.41,NNW,346,2.2,2.3,19,-99.99,,,0.00,0,rob ver 1B,2013-10-21 10:33:00,
2013-10-21 03:34:00,62.7,20.8,29.41,North,349,2.1,2.3,19,-99.99,,,0.00,0,rob ver 1B,2013-10-21 10:34:00,
2013-10-21 03:35:00,62.7,20.8,29.41,North,356,2.3,2.4,19,-99.99,,,0.00,0,rob ver 1B,2013-10-21 10:35:00,
2013-10-21 03:36:00,62.8,20.8,29.41,North,1,2.3,2.5,19,-99.99,,,0.00,0,rob ver 1B,2013-10-21 10:36:00,
2013-10-21 03:37:00,61.0,30.5,29.35,ENE,64,1.1,1.6,30,-99.99,,,0.00,0,rob ver 1A,2013-10-21 10:37:00,
2013-10-21 03:38:00,62.9,21.1,29.41,North,356,2.0,2.2,19,-99.99,,,0.00,0,rob ver 1B,2013-10-21 10:38:00,
2013-10-21 03:39:00,63.0,21.0,29.41,North,6,2.1,2.4,19,-99.99,,,0.00,0,rob ver 1B,2013-10-21 10:39:00,
2013-10-21 03:40:00,62.8,20.7,29.41,NNE,13,2.1,2.4,19,-99.99,,,0.00,0,rob ver 1B,2013-10-21 10:40:00,
2013-10-21 03:41:00,62.5,20.5,29.41,NNE,14,1.9,2.4,19,-99.99,,,0.00,0,rob ver 1B,2013-10-21 10:41:00,
2013-10-21 03:42:00,60.9,29.2,29.35,NNE,30,1.5,2.1,29,-99.99,,,0.00,0,rob ver 1A,2013-10-21 10:42:00,
2013-10-21 03:43:00,61.8,20.4,29.41,NNE,13,2.8,3.4,20,-99.99,,,0.00,0,rob ver 1B,2013-10-21 10:43:00,
2013-10-21 03:44:00,61.6,20.6,29.41,North,11,3.1,3.4,20,-99.99,,,0.00,0,rob ver 1B,2013-10-21 10:44:00,
2013-10-21 03:45:00,61.5,20.6,29.41,North,2,2.8,2.9,20,-99.99,,,0.00,0,rob ver 1B,2013-10-21 10:45:00,
2013-10-21 03:46:00,61.3,20.5,29.41,North,7,2.6,3.0,20,-99.99,,,0.00,0,rob ver 1B,2013-10-21 10:46:00,
2013-10-21 03:47:00,61.0,28.0,29.35,NE,44,2.1,3.1,28,-99.99,,,0.00,0,rob ver 1A,2013-10-21 10:47:00,
2013-10-21 03:48:00,61.0,20.3,29.41,North,9,3.4,3.8,20,-99.99,,,0.00,0,rob ver 1B,2013-10-21 10:48:00,
2013-10-21 03:49:00,60.8,20.3,29.41,North,7,3.6,4.0,20,-99.99,,,0.00,0,rob ver 1B,2013-10-21 10:49:00,
2013-10-21 03:50:00,60.6,20.4,29.41,North,8,3.6,3.9,21,-99.99,,,0.00,0,rob ver 1B,2013-10-21 10:50:00,
2013-10-21 03:51:00,60.6,20.9,29.41,North,6,3.8,4.0,21,-99.99,,,0.00,0,rob ver 1B,2013-10-21 10:51:00,
2013-10-21 03:52:00,61.5,27.2,29.35,North,9,3.9,4.2,27,-99.99,,,0.00,0,rob ver 1A,2013-10-21 10:52:00,
2013-10-21 03:53:00,60.8,20.9,29.41,NNE,12,3.2,3.5,21,-99.99,,,0.00,0,rob ver 1B,2013-10-21 10:53:00,
2013-10-21 03:54:00,60.8,20.8,29.41,North,10,3.3,3.8,20,-99.99,,,0.00,0,rob ver 1B,2013-10-21 10:54:00,
2013-10-21 03:55:00,60.7,20.6,29.41,North,5,3.3,3.6,21,-99.99,,,0.00,0,rob ver 1B,2013-10-21 10:55:00,
2013-10-21 03:56:00,60.5,20.6,29.41,North,4,3.2,3.4,21,-99.99,,,0.00,0,rob ver 1B,2013-10-21 10:56:00,
2013-10-21 03:57:00,61.5,27.7,29.35,NNE,30,2.9,3.5,27,-99.99,,,0.00,0,rob ver 1A,2013-10-21 10:57:00,
2013-10-21 03:58:00,60.3,20.6,29.41,NNE,13,2.9,3.0,21,-99.99,,,0.00,0,rob ver 1B,2013-10-21 10:58:00,
2013-10-21 03:59:00,60.3,20.7,29.41,NNE,22,3.0,3.2,21,-99.99,,,0.00,0,rob ver 1B,2013-10-21 10:59:00,
2013-10-21 04:00:00,60.3,20.9,29.41,NNE,25,3.3,3.4,21,-99.99,,,0.00,0,rob ver 1B,2013-10-21 11:00:00,
2013-10-21 04:01:00,60.2,20.9,29.41,NNE,33,3.5,3.7,21,-99.99,,,0.00,0,rob ver 1B,2013-10-21 11:01:00,
2013-10-21 04:02:00,60.1,21.1,29.41,NE,36,3.1,3.4,21,-99.99,,,0.00,0,rob ver 1B,2013-10-21 11:02:00,
2013-10-21 04:03:00,62.5,27.3,29.35,NNE,16,3.9,4.0,26,-99.99,,,0.00,0,rob ver 1A,2013-10-21 11:03:00,
2013-10-21 04:04:00,59.7,20.6,29.41,NNE,33,2.4,2.9,21,-99.99,,,0.00,0,rob ver 1B,2013-10-21 11:04:00,
2013-10-21 04:05:00,59.5,20.4,29.41,NNE,31,2.4,3.0,21,-99.99,,,0.00,0,rob ver 1B,2013-10-21 11:05:00,
2013-10-21 04:06:00,59.4,20.3,29.41,NNE,24,2.9,3.3,21,-99.99,,,0.00,0,rob ver 1B,2013-10-21 11:06:00,
2013-10-21 04:07:00,59.2,20.1,29.41,NNE,27,3.1,3.2,21,-99.99,,,0.00,0,rob ver 1B,2013-10-21 11:07:00,
2013-10-21 04:08:00,61.5,26.5,29.35,North,9,4.0,4.3,26,-99.99,,,0.00,0,rob ver 1A,2013-10-21 11:08:00,
2013-10-21 04:09:00,59.2,19.9,29.41,NE,38,3.0,3.6,21,-99.99,,,0.00,0,rob ver 1B,2013-10-21 11:09:00,
2013-10-21 04:10:00,59.2,19.8,29.41,NE,40,3.2,3.7,21,-99.99,,,0.00,0,rob ver 1B,2013-10-21 11:10:00,
2013-10-21 04:11:00,59.1,19.8,29.41,NE,40,3.1,3.4,21,-99.99,,,0.00,0,rob ver 1B,2013-10-21 11:11:00,
2013-10-21 04:12:00,59.1,19.8,29.41,NE,42,2.9,3.3,21,-99.99,,,0.00,0,rob ver 1B,2013-10-21 11:12:00,
2013-10-21 04:13:00,61.2,26.5,29.35,NNE,13,4.2,4.3,26,-99.99,,,0.00,0,rob ver 1A,2013-10-21 11:13:00,
2013-10-21 04:14:00,59.2,19.9,29.41,NE,42,3.7,4.0,21,-99.99,,,0.00,0,rob ver 1B,2013-10-21 11:14:00,
2013-10-21 04:15:00,59.2,19.9,29.41,NE,42,3.8,4.0,21,-99.99,,,0.00,0,rob ver 1B,2013-10-21 11:15:00,
2013-10-21 04:16:00,59.3,19.8,29.41,NE,46,3.9,4.3,21,-99.99,,,0.00,0,rob ver 1B,2013-10-21 11:16:00,
2013-10-21 04:17:00,59.4,19.8,29.41,NE,49,4.1,4.9,21,-99.99,,,0.00,0,rob ver 1B,2013-10-21 11:17:00,
2013-10-21 04:18:00,61.5,26.6,29.35,NE,40,4.4,5.1,26,-99.99,,,0.00,0,rob ver 1A,2013-10-21 11:18:00,
2013-10-21 04:19:00,59.4,19.6,29.41,NE,54,4.9,5.8,21,-99.99,,,0.00,0,rob ver 1B,2013-10-21 11:19:00,
2013-10-21 04:20:00,59.4,19.6,29.41,NE,51,5.3,6.5,21,-99.99,,,0.00,0,rob ver 1B,2013-10-21 11:20:00,
2013-10-21 04:21:00,59.3,19.6,29.41,NE,49,5.7,7.4,21,-99.99,,,0.00,0,rob ver 1B,2013-10-21 11:21:00,
2013-10-21 04:22:00,59.2,19.7,29.41,NE,50,6.0,7.7,21,-99.99,,,0.00,0,rob ver 1B,2013-10-21 11:22:00,
2013-10-21 04:23:00,61.7,26.7,29.35,ESE,102,1.4,2.3,26,-99.99,,,0.00,0,rob ver 1A,2013-10-21 11:23:00,
2013-10-21 04:24:00,59.1,19.8,29.41,NE,47,6.1,7.1,21,-99.99,,,0.00,0,rob ver 1B,2013-10-21 11:24:00,
2013-10-21 04:25:00,59.0,19.8,29.41,NE,48,5.7,7.5,21,-99.99,,,0.00,0,rob ver 1B,2013-10-21 11:25:00,
2013-10-21 04:26:00,59.0,19.8,29.41,NE,44,6.0,7.1,21,-99.99,,,0.00,0,rob ver 1B,2013-10-21 11:26:00,
2013-10-21 04:27:00,59.0,19.8,29.41,NE,40,5.9,7.1,21,-99.99,,,0.00,0,rob ver 1B,2013-10-21 11:27:00,
2013-10-21 04:28:00,61.4,25.2,29.35,ENE,72,3.6,4.3,25,-99.99,,,0.00,0,rob ver 1A,2013-10-21 11:28:00,
2013-10-21 04:29:00,59.0,19.7,29.41,NE,39,6.4,7.3,21,-99.99,,,0.00,0,rob ver 1B,2013-10-21 11:29:00,
2013-10-21 04:30:00,59.1,19.7,29.41,NE,36,6.0,6.7,21,-99.99,,,0.00,0,rob ver 1B,2013-10-21 11:30:00,
2013-10-21 04:31:00,59.0,19.7,29.41,NE,36,6.6,7.6,21,-99.99,,,0.00,0,rob ver 1B,2013-10-21 11:31:00,
2013-10-21 04:32:00,59.0,19.8,29.41,NE,35,6.2,7.0,21,-99.99,,,0.00,0,rob ver 1B,2013-10-21 11:32:00,
2013-10-21 04:33:00,60.7,25.0,29.35,NE,47,3.1,4.0,25,-99.99,,,0.00,0,rob ver 1A,2013-10-21 11:33:00,
2013-10-21 04:34:00,58.8,19.8,29.41,NNE,28,5.7,6.6,21,-99.99,,,0.00,0,rob ver 1B,2013-10-21 11:34:00,
2013-10-21 04:35:00,58.8,19.8,29.41,NNE,31,4.8,6.1,21,-99.99,,,0.00,0,rob ver 1B,2013-10-21 11:35:00,
2013-10-21 04:36:00,58.7,19.7,29.41,NE,34,4.0,4.8,21,-99.99,,,0.00,0,rob ver 1B,2013-10-21 11:36:00,
2013-10-21 04:37:00,58.6,19.8,29.41,NE,35,3.8,4.8,21,-99.99,,,0.00,0,rob ver 1B,2013-10-21 11:37:00,
2013-10-21 04:38:00,60.7,24.8,29.35,NE,36,2.3,2.9,25,-99.99,,,0.00,0,rob ver 1A,2013-10-21 11:38:00,
2013-10-21 04:39:00,58.5,19.7,29.41,NE,35,2.8,3.6,21,-99.99,,,0.00,0,rob ver 1B,2013-10-21 11:39:00,
2013-10-21 04:40:00,58.5,19.9,29.41,NE,39,2.7,3.3,22,-99.99,,,0.00,0,rob ver 1B,2013-10-21 11:40:00,
2013-10-21 04:41:00,58.7,20.1,29.41,NNE,21,3.6,4.2,22,-99.99,,,0.00,0,rob ver 1B,2013-10-21 11:41:00,
2013-10-21 04:42:00,58.9,20.1,29.41,NNE,19,3.9,4.5,21,-99.99,,,0.00,0,rob ver 1B,2013-10-21 11:42:00,
2013-10-21 04:43:00,60.5,24.7,29.35,NNE,21,3.4,3.7,25,-99.99,,,0.00,0,rob ver 1A,2013-10-21 11:43:00,
2013-10-21 04:44:00,59.2,20.2,29.41,NNE,26,4.0,4.4,21,-99.99,,,0.00,0,rob ver 1B,2013-10-21 11:44:00,
2013-10-21 04:45:00,59.4,20.3,29.41,NNE,31,4.0,4.2,21,-99.99,,,0.00,0,rob ver 1B,2013-10-21 11:45:00,
2013-10-21 04:46:00,59.5,20.3,29.41,NNE,33,4.0,4.5,21,-99.99,,,0.00,0,rob ver 1B,2013-10-21 11:46:00,
2013-10-21 04:47:00,59.4,20.1,29.41,NE,38,3.6,3.9,21,-99.99,,,0.00,0,rob ver 1B,2013-10-21 11:47:00,
2013-10-21 04:48:00,60.8,25.7,29.35,NE,35,2.5,2.9,25,-99.99,,,0.00,0,rob ver 1A,2013-10-21 11:48:00,
2013-10-21 04:49:00,59.1,19.9,29.41,NE,35,3.8,4.2,21,-99.99,,,0.00,0,rob ver 1B,2013-10-21 11:49:00,
2013-10-21 04:50:00,59.0,19.8,29.41,NE,36,3.9,4.3,21,-99.99,,,0.00,0,rob ver 1B,2013-10-21 11:50:00,
2013-10-21 04:51:00,58.9,19.7,29.41,NE,34,3.7,4.2,21,-99.99,,,0.00,0,rob ver 1B,2013-10-21 11:51:00,
2013-10-21 04:52:00,58.8,19.7,29.41,NE,35,3.9,4.4,21,-99.99,,,0.00,0,rob ver 1B,2013-10-21 11:52:00,
2013-10-21 04:53:00,62.0,25.6,29.35,ENE,70,1.5,1.9,24,-99.99,,,0.00,0,rob ver 1A,2013-10-21 11:53:00,
2013-10-21 04:54:00,58.6,19.8,29.41,NE,37,4.4,5.2,21,-99.99,,,0.00,0,rob ver 1B,2013-10-21 11:54:00,
2013-10-21 04:55:00,58.5,19.8,29.41,NE,36,4.9,5.4,22,-99.99,,,0.00,0,rob ver 1B,2013-10-21 11:55:00,
2013-10-21 04:56:00,58.4,19.8,29.41,NE,36,4.8,5.2,22,-99.99,,,0.00,0,rob ver 1B,2013-10-21 11:56:00,
2013-10-21 04:57:00,58.3,19.9,29.41,NNE,33,4.8,5.0,22,-99.99,,,0.00,0,rob ver 1B,2013-10-21 11:57:00,
2013-10-21 04:58:00,60.8,25.5,29.35,NNE,16,1.8,2.4,26,-99.99,,,0.00,0,rob ver 1A,2013-10-21 11:58:00,
2013-10-21 04:59:00,58.3,19.9,29.41,NNE,30,4.3,4.6,22,-99.99,,,0.00,0,rob ver 1B,2013-10-21 11:59:00,
2013-10-21 05:00:00,58.4,19.8,29.41,NNE,32,4.4,4.6,22,-99.99,,,0.00,0,rob ver 1B,2013-10-21 12:00:00,
2013-10-21 05:01:00,58.3,19.8,29.41,NNE,32,4.2,4.6,22,-99.99,,,0.00,0,rob ver 1B,2013-10-21 12:01:00,
2013-10-21 05:02:00,58.4,19.8,29.41,NNE,31,4.6,4.9,22,-99.99,,,0.00,0,rob ver 1B,2013-10-21 12:02:00,
2013-10-21 05:03:00,60.0,25.1,29.35,NNE,33,4.0,5.4,26,-99.99,,,0.00,0,rob ver 1A,2013-10-21 12:03:00,
2013-10-21 05:04:00,58.5,19.9,29.41,NNE,28,4.3,4.5,22,-99.99,,,0.00,0,rob ver 1B,2013-10-21 12:04:00,
2013-10-21 05:05:00,58.6,19.9,29.41,NNE,29,4.2,4.5,22,-99.99,,,0.00,0,rob ver 1B,2013-10-21 12:05:00,
2013-10-21 05:06:00,58.5,19.8,29.41,NE,37,4.4,4.8,21,-99.99,,,0.00,0,rob ver 1B,2013-10-21 12:06:00,
2013-10-21 05:07:00,58.5,19.5,29.41,NE,54,4.1,5.5,21,-99.99,,,0.00,0,rob ver 1B,2013-10-21 12:07:00,
2013-10-21 05:08:00,58.4,19.6,29.41,NE,41,4.0,5.5,21,-99.99,,,0.00,0,rob ver 1B,2013-10-21 12:08:00,
2013-10-21 05:09:00,61.7,25.7,29.35,NE,53,3.4,3.9,25,-99.99,,,0.00,0,rob ver 1A,2013-10-21 12:09:00,
2013-10-21 05:10:00,58.4,19.5,29.41,NE,36,4.9,6.0,21,-99.99,,,0.00,0,rob ver 1B,2013-10-21 12:10:00,
2013-10-21 05:11:00,58.5,19.5,29.41,NE,41,5.7,6.7,21,-99.99,,,0.00,0,rob ver 1B,2013-10-21 12:11:00,
2013-10-21 05:12:00,58.5,19.6,29.41,NE,47,5.9,7.1,21,-99.99,,,0.00,0,rob ver 1B,2013-10-21 12:12:00,
2013-10-21 05:13:00,58.5,19.7,29.44,NE,48,5.5,7.0,21,-99.99,,,0.00,0,rob ver 1B,2013-10-21 12:13:00,
2013-10-21 05:14:00,61.1,24.4,29.35,ESE,123,5.0,7.2,24,-99.99,,,0.00,0,rob ver 1A,2013-10-21 12:14:00,
2013-10-21 05:15:00,58.4,19.6,29.44,NE,35,5.3,6.4,21,-99.99,,,0.00,0,rob ver 1B,2013-10-21 12:15:00,
2013-10-21 05:16:00,58.4,19.6,29.41,NE,37,5.1,5.8,21,-99.99,,,0.00,0,rob ver 1B,2013-10-21 12:16:00,
2013-10-21 05:17:00,58.5,19.6,29.44,NE,36,3.9,4.7,21,-99.99,,,0.00,0,rob ver 1B,2013-10-21 12:17:00,
2013-10-21 05:18:00,58.5,19.5,29.44,NNE,28,4.6,5.8,21,-99.99,,,0.00,0,rob ver 1B,2013-10-21 12:18:00,
2013-10-21 05:19:00,57.7,23.9,29.35,ESE,119,3.8,4.3,27,-99.99,,,0.00,0,rob ver 1A,2013-10-21 12:19:00,
2013-10-21 05:20:00,58.7,19.6,29.44,NE,34,4.4,5.1,21,-99.99,,,0.00,0,rob ver 1B,2013-10-21 12:20:00,
2013-10-21 05:21:00,58.8,19.7,29.44,NE,42,4.2,5.7,21,-99.99,,,0.00,0,rob ver 1B,2013-10-21 12:21:00,
2013-10-21 05:22:00,58.9,19.7,29.44,NE,48,3.2,5.5,21,-99.99,,,0.00,0,rob ver 1B,2013-10-21 12:22:00,
2013-10-21 05:23:00,59.0,19.6,29.44,NE,49,2.5,4.0,21,-99.99,,,0.00,0,rob ver 1B,2013-10-21 12:23:00,
2013-10-21 05:24:00,56.6,24.6,29.35,ESE,107,3.7,4.1,29,-99.99,,,0.00,0,rob ver 1A,2013-10-21 12:24:00,
2013-10-21 05:25:00,59.3,19.5,29.44,ENE,63,3.1,4.0,21,-99.99,,,0.00,0,rob ver 1B,2013-10-21 12:25:00,
2013-10-21 05:26:00,59.3,19.5,29.44,ENE,74,3.6,4.6,21,-99.99,,,0.00,0,rob ver 1B,2013-10-21 12:26:00,
2013-10-21 05:27:00,59.3,19.5,29.44,NE,38,4.6,6.0,20,-99.99,,,0.00,0,rob ver 1B,2013-10-21 12:27:00,
2013-10-21 05:28:00,59.5,19.4,29.44,NE,36,4.8,6.0,20,-99.99,,,0.00,0,rob ver 1B,2013-10-21 12:28:00,
2013-10-21 05:29:00,56.1,25.0,29.35,East,101,3.3,3.6,29,-99.99,,,0.00,0,rob ver 1A,2013-10-21 12:29:00,
2013-10-21 05:30:00,60.1,19.3,29.44,NNE,21,6.2,7.1,20,-99.99,,,0.00,0,rob ver 1B,2013-10-21 12:30:00,
2013-10-21 05:31:00,60.6,19.1,29.44,NNE,25,6.5,7.2,19,-99.99,,,0.00,0,rob ver 1B,2013-10-21 12:31:00,
2013-10-21 05:32:00,61.0,19.0,29.44,NE,34,6.2,7.0,19,-99.99,,,0.00,0,rob ver 1B,2013-10-21 12:32:00,
2013-10-21 05:33:00,61.0,19.0,29.44,ENE,61,3.9,5.9,19,-99.99,,,0.00,0,rob ver 1B,2013-10-21 12:33:00,
2013-10-21 05:34:00,56.4,24.8,29.35,East,83,3.3,3.8,29,-99.99,,,0.00,0,rob ver 1A,2013-10-21 12:34:00,
2013-10-21 05:35:00,60.1,19.5,29.44,ESE,111,3.9,4.5,20,-99.99,,,0.00,0,rob ver 1B,2013-10-21 12:35:00,
2013-10-21 05:36:00,59.7,19.4,29.44,East,87,3.4,4.8,20,-99.99,,,0.00,0,rob ver 1B,2013-10-21 12:36:00,
2013-10-21 05:37:00,59.8,19.4,29.44,ENE,60,3.2,4.3,20,-99.99,,,0.00,0,rob ver 1B,2013-10-21 12:37:00,
2013-10-21 05:38:00,60.0,19.3,29.44,NE,38,2.9,3.8,20,-99.99,,,0.00,0,rob ver 1B,2013-10-21 12:38:00,
2013-10-21 05:39:00,56.4,24.0,29.35,ENE,63,3.6,4.3,28,-99.99,,,0.00,0,rob ver 1A,2013-10-21 12:39:00,
2013-10-21 05:40:00,60.3,19.2,29.44,NE,39,2.4,3.1,20,-99.99,,,0.00,0,rob ver 1B,2013-10-21 12:40:00,
2013-10-21 05:41:00,60.3,19.1,29.44,NNE,23,3.0,4.4,19,-99.99,,,0.00,0,rob ver 1B,2013-10-21 12:41:00,
2013-10-21 05:42:00,60.4,19.0,29.44,NNE,18,4.3,4.9,19,-99.99,,,0.00,0,rob ver 1B,2013-10-21 12:42:00,
2013-10-21 05:43:00,60.6,18.9,29.44,NNE,17,4.2,4.9,19,-99.99,,,0.00,0,rob ver 1B,2013-10-21 12:43:00,
2013-10-21 05:44:00,56.8,23.6,29.35,NE,52,3.7,4.1,27,-99.99,,,0.00,0,rob ver 1A,2013-10-21 12:44:00,
2013-10-21 05:45:00,61.0,18.9,29.44,NNE,15,4.2,4.7,19,-99.99,,,0.00,0,rob ver 1B,2013-10-21 12:45:00,
2013-10-21 05:46:00,61.1,18.7,29.44,NNE,17,3.4,4.1,19,-99.99,,,0.00,0,rob ver 1B,2013-10-21 12:46:00,
2013-10-21 05:47:00,61.0,18.7,29.44,NNE,18,3.1,3.5,19,-99.99,,,0.00,0,rob ver 1B,2013-10-21 12:47:00,
2013-10-21 05:48:00,60.9,18.8,29.44,NNE,17,3.2,3.6,19,-99.99,,,0.00,0,rob ver 1B,2013-10-21 12:48:00,
2013-10-21 05:49:00,61.0,18.9,29.44,NNE,15,3.8,4.1,19,-99.99,,,0.00,0,rob ver 1B,2013-10-21 12:49:00,
2013-10-21 05:50:00,58.2,22.6,29.38,NE,52,3.1,3.5,24,-99.99,,,0.00,0,rob ver 1A,2013-10-21 12:50:00,
2013-10-21 05:51:00,61.4,19.1,29.44,NNE,15,4.1,4.5,19,-99.99,,,0.00,0,rob ver 1B,2013-10-21 12:51:00,
2013-10-21 05:52:00,61.6,19.1,29.44,NNE,16,4.3,4.7,19,-99.99,,,0.00,0,rob ver 1B,2013-10-21 12:52:00,
2013-10-21 05:53:00,61.8,19.1,29.44,NNE,19,4.3,4.7,19,-99.99,,,0.00,0,rob ver 1B,2013-10-21 12:53:00,
2013-10-21 05:54:00,61.7,19.3,29.44,NNE,19,4.2,4.4,19,-99.99,,,0.00,0,rob ver 1B,2013-10-21 12:54:00,
2013-10-21 05:55:00,57.6,22.7,29.38,NE,45,2.3,2.6,25,-99.99,,,0.00,0,rob ver 1A,2013-10-21 12:55:00,
2013-10-21 05:56:00,61.3,19.3,29.44,NNE,29,3.3,3.8,19,-99.99,,,0.00,0,rob ver 1B,2013-10-21 12:56:00,
2013-10-21 05:57:00,61.0,19.5,29.44,NNE,30,2.8,3.5,20,-99.99,,,0.00,0,rob ver 1B,2013-10-21 12:57:00,
2013-10-21 05:58:00,60.9,19.6,29.44,NNE,30,3.0,3.7,20,-99.99,,,0.00,0,rob ver 1B,2013-10-21 12:58:00,
2013-10-21 05:59:00,60.8,19.7,29.44,NE,34,3.4,3.8,20,-99.99,,,0.00,0,rob ver 1B,2013-10-21 12:59:00,
2013-10-21 06:00:00,57.8,22.6,29.38,NE,44,3.0,3.3,25,-99.99,,,0.00,0,rob ver 1A,2013-10-21 13:00:00,
2013-10-21 06:01:00,60.9,19.7,29.44,NE,34,2.8,3.4,20,-99.99,,,0.00,0,rob ver 1B,2013-10-21 13:01:00,
2013-10-21 06:02:00,60.9,19.7,29.44,NNE,32,2.3,3.1,19,-99.99,,,0.00,0,rob ver 1B,2013-10-21 13:02:00,
2013-10-21 06:03:00,60.9,19.8,29.44,NNE,23,1.2,2.1,20,-99.99,,,0.00,0,rob ver 1B,2013-10-21 13:03:00,
2013-10-21 06:04:00,60.9,19.7,29.44,NNW,342,0.4,1.1,19,-99.99,,,0.00,0,rob ver 1B,2013-10-21 13:04:00,
2013-10-21 06:05:00,57.5,22.9,29.38,North,9,2.1,2.5,26,-99.99,,,0.00,0,rob ver 1A,2013-10-21 13:05:00,
2013-10-21 06:06:00,60.5,19.2,29.44,South,189,1.0,1.4,20,-99.99,,,0.00,0,rob ver 1B,2013-10-21 13:06:00,
2013-10-21 06:07:00,60.1,19.5,29.44,South,182,1.0,1.5,20,-99.99,,,0.00,0,rob ver 1B,2013-10-21 13:07:00,
2013-10-21 06:08:00,59.8,19.6,29.44,South,174,0.7,1.3,20,-99.99,,,0.00,0,rob ver 1B,2013-10-21 13:08:00,
2013-10-21 06:09:00,59.7,19.6,29.44,ENE,71,0.5,1.5,21,-99.99,,,0.00,0,rob ver 1B,2013-10-21 13:09:00,
2013-10-21 06:10:00,57.9,23.0,29.38,NE,47,0.6,1.1,26,-99.99,,,0.00,0,rob ver 1A,2013-10-21 13:10:00,
2013-10-21 06:11:00,59.6,19.4,29.44,South,182,1.5,2.4,20,-99.99,,,0.00,0,rob ver 1B,2013-10-21 13:11:00,
2013-10-21 06:12:00,59.6,19.4,29.44,South,177,1.7,2.5,20,-99.99,,,0.00,0,rob ver 1B,2013-10-21 13:12:00,
2013-10-21 06:13:00,59.6,19.4,29.44,South,169,1.3,1.8,20,-99.99,,,0.00,0,rob ver 1B,2013-10-21 13:13:00,
2013-10-21 06:14:00,59.7,19.5,29.44,South,176,0.6,0.9,20,-99.99,,,0.00,0,rob ver 1B,2013-10-21 13:14:00,
2013-10-21 06:15:00,57.3,22.2,29.38,SE,136,1.8,2.1,25,-99.99,,,0.00,0,rob ver 1A,2013-10-21 13:15:00,
2013-10-21 06:16:00,59.7,19.4,29.44,South,176,0.3,0.5,20,-99.99,,,0.00,0,rob ver 1B,2013-10-21 13:16:00,
2013-10-21 06:17:00,59.6,19.3,29.44,North,352,0.2,0.5,20,-99.99,,,0.00,0,rob ver 1B,2013-10-21 13:17:00,
2013-10-21 06:18:00,59.6,19.4,29.44,North,10,0.6,0.9,20,-99.99,,,0.00,0,rob ver 1B,2013-10-21 13:18:00,
2013-10-21 06:19:00,59.5,19.4,29.44,NNW,345,0.5,0.7,20,-99.99,,,0.00,0,rob ver 1B,2013-10-21 13:19:00,
2013-10-21 06:20:00,56.2,21.2,29.38,ENE,74,3.0,3.2,25,-99.99,,,0.00,0,rob ver 1A,2013-10-21 13:20:00,
2013-10-21 06:21:00,59.2,19.3,29.44,SW,229,1.0,1.3,21,-99.99,,,0.00,0,rob ver 1B,2013-10-21 13:21:00,
2013-10-21 06:22:00,58.9,19.2,29.44,SW,230,1.1,1.5,21,-99.99,,,0.00,0,rob ver 1B,2013-10-21 13:22:00,
2013-10-21 06:23:00,58.5,19.4,29.44,SSW,213,1.5,1.8,21,-99.99,,,0.00,0,rob ver 1B,2013-10-21 13:23:00,
2013-10-21 06:24:00,58.2,19.4,29.44,SW,230,1.6,1.9,21,-99.99,,,0.00,0,rob ver 1B,2013-10-21 13:24:00,
2013-10-21 06:25:00,56.2,21.3,29.38,ENE,63,1.7,2.0,25,-99.99,,,0.00,0,rob ver 1A,2013-10-21 13:25:00,
2013-10-21 06:26:00,57.7,19.3,29.44,SW,234,1.2,1.4,22,-99.99,,,0.00,0,rob ver 1B,2013-10-21 13:26:00,
2013-10-21 06:27:00,57.6,19.3,29.44,SW,236,1.3,1.5,22,-99.99,,,0.00,0,rob ver 1B,2013-10-21 13:27:00,
2013-10-21 06:28:00,57.5,19.3,29.44,WSW,245,1.2,1.4,22,-99.99,,,0.00,0,rob ver 1B,2013-10-21 13:28:00,
2013-10-21 06:29:00,57.5,19.4,29.44,SW,219,1.0,1.3,22,-99.99,,,0.00,0,rob ver 1B,2013-10-21 13:29:00,
2013-10-21 06:30:00,56.7,21.5,29.38,NE,36,1.1,1.6,24,-99.99,,,0.00,.495,rob ver 1A,2013-10-21 13:30:00,
2013-10-21 06:31:00,57.4,19.4,29.44,South,191,0.7,0.9,22,-99.99,,,0.00,.66,rob ver 1B,2013-10-21 13:31:00,
2013-10-21 06:32:00,57.3,19.5,29.44,SW,214,1.0,1.2,22,-99.99,,,0.00,.66,rob ver 1B,2013-10-21 13:32:00,
2013-10-21 06:33:00,57.3,19.5,29.44,SW,231,1.1,1.4,22,-99.99,,,0.00,.66,rob ver 1B,2013-10-21 13:33:00,
2013-10-21 06:34:00,57.3,19.5,29.44,WSW,237,1.0,1.1,22,-99.99,,,0.00,.66,rob ver 1B,2013-10-21 13:34:00,
2013-10-21 06:35:00,57.3,19.6,29.44,West,275,1.3,1.7,22,-99.99,,,0.00,.825,rob ver 1B,2013-10-21 13:35:00,
2013-10-21 06:36:00,56.7,21.7,29.38,NE,49,2.1,2.6,25,-99.99,,,0.00,.99,rob ver 1A,2013-10-21 13:36:00,
2013-10-21 06:37:00,57.3,19.7,29.44,WSW,250,1.2,1.5,22,-99.99,,,0.00,.99,rob ver 1B,2013-10-21 13:37:00,
2013-10-21 06:38:00,57.3,19.7,29.44,WSW,254,1.5,1.7,22,-99.99,,,0.00,1.32,rob ver 1B,2013-10-21 13:38:00,
2013-10-21 06:39:00,57.4,19.7,29.44,WSW,248,1.7,1.9,22,-99.99,,,0.00,1.65,rob ver 1B,2013-10-21 13:39:00,
2013-10-21 06:40:00,57.5,19.7,29.44,WSW,245,1.6,1.8,22,-99.99,,,0.00,1.65,rob ver 1B,2013-10-21 13:40:00,
2013-10-21 06:41:00,56.5,21.4,29.38,NE,44,4.4,4.7,25,-99.99,,,0.00,2.145,rob ver 1A,2013-10-21 13:41:00,
2013-10-21 06:42:00,57.8,19.8,29.44,WNW,286,1.5,1.9,22,-99.99,,,0.00,2.97,rob ver 1B,2013-10-21 13:42:00,
2013-10-21 06:43:00,57.8,20.0,29.44,NW,304,1.8,2.0,22,-99.99,,,0.00,2.97,rob ver 1B,2013-10-21 13:43:00,
2013-10-21 06:44:00,57.9,20.0,29.44,West,280,1.7,1.9,22,-99.99,,,0.00,3.63,rob ver 1B,2013-10-21 13:44:00,
2013-10-21 06:45:00,57.9,19.9,29.44,West,278,1.7,1.8,22,-99.99,,,0.00,4.125,rob ver 1B,2013-10-21 13:45:00,
2013-10-21 06:46:00,58.0,20.0,29.44,WNW,295,1.6,1.9,22,-99.99,,,0.00,4.455,rob ver 1B,2013-10-21 13:46:00,
2013-10-21 06:47:00,58.1,19.9,29.44,West,281,1.6,2.3,22,-99.99,,,0.00,4.95,rob ver 1B,2013-10-21 13:47:00,
2013-10-21 06:48:00,58.3,19.6,29.44,West,280,2.4,2.5,21,-99.99,,,0.00,5.61,rob ver 1B,2013-10-21 13:48:00,
2013-10-21 06:49:00,58.6,19.7,29.44,WNW,284,2.5,2.6,21,-99.99,,,0.00,6.435,rob ver 1B,2013-10-21 13:49:00,
2013-10-21 06:50:00,58.8,19.8,29.44,WNW,286,2.3,2.4,21,-99.99,,,0.00,8.25,rob ver 1B,2013-10-21 13:50:00,
2013-10-21 06:51:00,58.9,19.8,29.44,WNW,296,2.0,2.2,21,-99.99,,,0.00,11.05,rob ver 1B,2013-10-21 13:51:00,
2013-10-21 06:52:00,59.1,19.8,29.44,WNW,299,2.2,2.3,21,-99.99,,,0.00,13.53,rob ver 1B,2013-10-21 13:52:00,
2013-10-21 06:53:00,59.2,19.8,29.44,NW,307,2.3,2.5,21,-99.99,,,0.00,16,rob ver 1B,2013-10-21 13:53:00,
2013-10-21 06:58:00,59.2,19.9,29.44,NW,308,2.5,2.6,21,-99.99,,,0.00,28.05,rob ver 1B,2013-10-21 13:58:00,
2013-10-21 06:59:00,59.2,20.0,29.44,NW,316,2.5,2.8,21,-99.99,,,0.00,30.69,rob ver 1B,2013-10-21 13:59:00,
2013-10-21 07:00:00,59.1,20.0,29.44,NW,321,2.3,2.6,21,-99.99,,,0.00,33.33,rob ver 1B,2013-10-21 14:00:00,
2013-10-21 07:01:00,59.1,20.1,29.44,NW,317,2.2,2.4,21,-99.99,,,0.00,35.8,rob ver 1B,2013-10-21 14:01:00,
2013-10-21 07:02:00,59.1,20.0,29.44,NW,320,2.5,2.9,21,-99.99,,,0.00,38.11,rob ver 1B,2013-10-21 14:02:00,
2013-10-21 07:03:00,59.1,20.0,29.44,NW,321,2.9,3.2,21,-99.99,,,0.00,40.59,rob ver 1B,2013-10-21 14:03:00,
2013-10-21 07:04:00,59.3,20.0,29.44,NW,322,2.7,3.1,21,-99.99,,,0.00,43.23,rob ver 1B,2013-10-21 14:04:00,
2013-10-21 07:05:00,59.5,20.1,29.44,NW,324,2.9,3.2,21,-99.99,,,0.00,46.2,rob ver 1B,2013-10-21 14:05:00,
2013-10-21 07:06:00,59.7,20.2,29.44,NNW,330,2.8,3.1,21,-99.99,,,0.00,48.84,rob ver 1B,2013-10-21 14:06:00,
2013-10-21 07:07:00,59.8,20.2,29.44,NNW,336,2.6,2.9,21,-99.99,,,0.00,51.15,rob ver 1B,2013-10-21 14:07:00,
2013-10-21 07:08:00,59.6,20.4,29.44,NNW,339,2.9,3.3,21,-99.99,,,0.00,54.12,rob ver 1B,2013-10-21 14:08:00,
2013-10-21 07:09:00,59.6,20.6,29.44,NNW,338,3.0,3.4,21,-99.99,,,0.00,56.59,rob ver 1B,2013-10-21 14:09:00,
2013-10-21 07:10:00,59.5,20.6,29.44,NNW,344,3.0,3.2,22,-99.99,,,0.00,59.73,rob ver 1B,2013-10-21 14:10:00,
2013-10-21 07:11:00,59.5,20.7,29.44,NNW,336,2.7,3.2,22,-99.99,,,0.00,62.37,rob ver 1B,2013-10-21 14:11:00,
2013-10-21 07:12:00,59.6,20.8,29.44,NNW,337,2.7,3.0,21,-99.99,,,0.00,64.68,rob ver 1B,2013-10-21 14:12:00,
2013-10-21 07:13:00,59.6,20.6,29.44,NNW,345,2.6,3.0,21,-99.99,,,0.00,67.65,rob ver 1B,2013-10-21 14:13:00,
2013-10-21 07:14:00,59.8,20.6,29.44,NNW,343,2.7,3.0,21,-99.99,,,0.00,70.3,rob ver 1B,2013-10-21 14:14:00,
2013-10-21 07:15:00,60.0,20.5,29.44,North,351,2.7,2.9,21,-99.99,,,0.00,72.9,rob ver 1B,2013-10-21 14:15:00,
2013-10-21 07:16:00,60.2,20.4,29.44,NNW,346,2.7,3.0,21,-99.99,,,0.00,75.6,rob ver 1B,2013-10-21 14:16:00,
2013-10-21 07:17:00,60.3,20.2,29.44,North,350,2.9,3.1,20,-99.99,,,0.00,78.5,rob ver 1B,2013-10-21 14:17:00,
2013-10-21 07:18:00,60.5,20.2,29.44,North,351,3.0,3.3,20,-99.99,,,0.00,81.5,rob ver 1B,2013-10-21 14:18:00,
2013-10-21 07:19:00,60.6,20.2,29.44,North,356,3.2,3.6,20,-99.99,,,0.00,84.1,rob ver 1B,2013-10-21 14:19:00,
2013-10-21 07:20:00,60.7,20.1,29.44,North,352,3.6,3.8,20,-99.99,,,0.00,87.1,rob ver 1B,2013-10-21 14:20:00,
2013-10-21 07:21:00,61.1,20.1,29.44,NNW,348,3.4,3.7,20,-99.99,,,0.00,90.1,rob ver 1B,2013-10-21 14:21:00,
2013-10-21 07:22:00,61.3,20.1,29.44,NNW,346,3.6,3.8,20,-99.99,,,0.00,92.7,rob ver 1B,2013-10-21 14:22:00,
2013-10-21 07:23:00,61.5,20.2,29.44,North,352,3.2,3.4,20,-99.99,,,0.00,96,rob ver 1B,2013-10-21 14:23:00,
2013-10-21 07:24:00,61.5,20.1,29.44,North,352,3.1,3.3,19,-99.99,,,0.00,98.7,rob ver 1B,2013-10-21 14:24:00,
2013-10-21 07:25:00,61.6,20.4,29.44,NNW,341,3.0,3.3,20,-99.99,,,0.00,101.5,rob ver 1B,2013-10-21 14:25:00,
2013-10-21 07:26:00,61.8,20.7,29.44,NNW,345,3.1,3.5,20,-99.99,,,0.00,104.6,rob ver 1B,2013-10-21 14:26:00,
2013-10-21 07:27:00,61.9,20.7,29.44,NNW,343,2.7,3.0,20,-99.99,,,0.00,107.2,rob ver 1B,2013-10-21 14:27:00,
2013-10-21 07:28:00,62.0,20.9,29.44,NNW,332,2.4,2.8,20,-99.99,,,0.00,110.5,rob ver 1B,2013-10-21 14:28:00,
2013-10-21 07:29:00,62.2,21.0,29.44,NNW,334,2.2,2.7,20,-99.99,,,0.00,113.2,rob ver 1B,2013-10-21 14:29:00,
2013-10-21 07:30:00,62.4,20.7,29.44,NNW,340,2.1,2.4,19,-99.99,,,0.00,116.5,rob ver 1B,2013-10-21 14:30:00,
2013-10-21 07:31:00,62.6,20.8,29.44,NNW,337,2.4,2.8,19,-99.99,,,0.00,119.3,rob ver 1B,2013-10-21 14:31:00,
2013-10-21 07:32:00,62.8,20.8,29.44,NNW,343,2.6,2.9,19,-99.99,,,0.00,122.4,rob ver 1B,2013-10-21 14:32:00,
2013-10-21 07:33:00,63.0,20.6,29.44,NNW,347,2.4,3.0,19,-99.99,,,0.00,125.7,rob ver 1B,2013-10-21 14:33:00,
2013-10-21 07:34:00,63.1,20.8,29.47,NNW,346,1.9,2.2,19,-99.99,,,0.00,128.4,rob ver 1B,2013-10-21 14:34:00,
2013-10-21 07:35:00,61.1,22.8,29.38,SW,232,1.1,1.3,22,-99.99,,,0.00,128.7,rob ver 1A,2013-10-21 14:35:00,
2013-10-21 07:36:00,63.9,22.1,29.47,NW,317,0.8,1.1,19,-99.99,,,0.00,134.8,rob ver 1B,2013-10-21 14:36:00,
2013-10-21 07:37:00,64.4,21.9,29.47,North,349,0.5,1.0,19,-99.99,,,0.00,137.6,rob ver 1B,2013-10-21 14:37:00,
2013-10-21 07:38:00,64.8,21.9,29.47,SW,223,0.5,1.5,18,-99.99,,,0.00,140.9,rob ver 1B,2013-10-21 14:38:00,
2013-10-21 07:39:00,65.0,21.2,29.47,South,187,0.9,1.3,18,-99.99,,,0.00,143.5,rob ver 1B,2013-10-21 14:39:00,
2013-10-21 07:40:00,61.3,22.8,29.41,SSW,200,1.0,1.1,22,-99.99,,,0.00,144.2,rob ver 1A,2013-10-21 14:40:00,
2013-10-21 07:41:00,64.8,21.1,29.47,SSW,202,1.4,2.0,18,-99.99,,,0.00,150.1,rob ver 1B,2013-10-21 14:41:00,
2013-10-21 07:42:00,64.6,21.0,29.47,SSW,196,0.8,1.4,18,-99.99,,,0.00,152.8,rob ver 1B,2013-10-21 14:42:00,
2013-10-21 07:43:00,64.3,21.7,29.47,South,184,1.7,2.1,19,-99.99,,,0.00,156.6,rob ver 1B,2013-10-21 14:43:00,
2013-10-21 07:44:00,64.0,21.5,29.47,South,189,1.7,2.1,19,-99.99,,,0.00,160,rob ver 1B,2013-10-21 14:44:00,
2013-10-21 07:45:00,63.8,21.4,29.47,SSW,196,1.1,1.5,19,-99.99,,,0.00,162.7,rob ver 1B,2013-10-21 14:45:00,
2013-10-21 07:46:00,61.6,23.1,29.41,SSE,161,1.7,2.0,22,-99.99,,,0.00,163.3,rob ver 1A,2013-10-21 14:46:00,
2013-10-21 07:47:00,64.1,21.6,29.47,South,184,0.8,1.0,19,-99.99,,,0.00,169.6,rob ver 1B,2013-10-21 14:47:00,
2013-10-21 07:48:00,64.3,21.4,29.47,South,175,1.1,1.6,19,-99.99,,,0.00,172.7,rob ver 1B,2013-10-21 14:48:00,
2013-10-21 07:49:00,64.2,21.3,29.47,South,180,1.6,1.8,19,-99.99,,,0.00,175.9,rob ver 1B,2013-10-21 14:49:00,
2013-10-21 07:50:00,64.0,21.4,29.47,South,185,1.6,1.9,19,-99.99,,,0.00,179.2,rob ver 1B,2013-10-21 14:50:00,
2013-10-21 07:51:00,62.8,22.9,29.41,West,262,0.3,0.6,21,-99.99,,,0.00,179.8,rob ver 1A,2013-10-21 14:51:00,
2013-10-21 07:52:00,64.2,21.3,29.47,SSW,212,1.0,1.2,18,-99.99,,,0.00,185.8,rob ver 1B,2013-10-21 14:52:00,
2013-10-21 07:53:00,64.5,21.4,29.47,SSW,208,1.2,1.7,18,-99.99,,,0.00,188.4,rob ver 1B,2013-10-21 14:53:00,
2013-10-21 07:54:00,64.7,21.0,29.47,SSW,204,1.8,2.1,18,-99.99,,,0.00,191.7,rob ver 1B,2013-10-21 14:54:00,
2013-10-21 07:55:00,64.8,21.3,29.47,SSW,202,2.2,2.4,18,-99.99,,,0.00,195,rob ver 1B,2013-10-21 14:55:00,
2013-10-21 07:56:00,64.8,23.2,29.41,ESE,121,0.5,0.8,20,-99.99,,,0.00,196.3,rob ver 1A,2013-10-21 14:56:00,
2013-10-21 07:57:00,64.7,22.1,29.47,SSW,195,1.7,2.0,19,-99.99,,,0.00,201.8,rob ver 1B,2013-10-21 14:57:00,
2013-10-21 07:58:00,64.8,22.1,29.47,SSW,206,1.8,2.1,19,-99.99,,,0.00,204.9,rob ver 1B,2013-10-21 14:58:00,
2013-10-21 07:59:00,64.8,21.6,29.47,SW,215,1.9,2.3,18,-99.99,,,0.00,208.7,rob ver 1B,2013-10-21 14:59:00,
2013-10-21 08:00:00,64.7,21.5,29.47,SW,214,1.8,2.1,18,-99.99,,,0.00,211.7,rob ver 1B,2013-10-21 15:00:00,
2013-10-21 08:01:00,66.4,23.1,29.41,SSW,212,0.6,0.9,19,-99.99,,,0.00,213.1,rob ver 1A,2013-10-21 15:01:00,
2013-10-21 08:02:00,64.8,21.4,29.47,SSW,205,1.8,2.3,19,-99.99,,,0.00,218.4,rob ver 1B,2013-10-21 15:02:00,
2013-10-21 08:03:00,64.9,22.6,29.47,South,189,1.5,1.7,19,-99.99,,,0.00,222.1,rob ver 1B,2013-10-21 15:03:00,
2013-10-21 08:04:00,65.0,22.5,29.47,South,190,1.6,2.0,19,-99.99,,,0.00,225.4,rob ver 1B,2013-10-21 15:04:00,
2013-10-21 08:05:00,65.2,22.1,29.47,SSW,198,1.7,2.1,19,-99.99,,,0.00,228.7,rob ver 1B,2013-10-21 15:05:00,
2013-10-21 08:06:00,66.8,22.5,29.41,NNE,31,1.1,1.7,18,-99.99,,,0.00,230.6,rob ver 1A,2013-10-21 15:06:00,
2013-10-21 08:07:00,65.5,21.8,29.47,SSW,206,1.9,2.3,18,-99.99,,,0.00,234.6,rob ver 1B,2013-10-21 15:07:00,
2013-10-21 08:08:00,65.6,21.4,29.47,SW,220,2.4,2.9,17,-99.99,,,0.00,238.2,rob ver 1B,2013-10-21 15:08:00,
2013-10-21 08:09:00,65.4,20.7,29.47,SW,225,2.8,3.2,18,-99.99,,,0.00,241.5,rob ver 1B,2013-10-21 15:09:00,
2013-10-21 08:10:00,65.3,21.1,29.47,SW,225,2.8,3.2,18,-99.99,,,0.00,244.8,rob ver 1B,2013-10-21 15:10:00,
2013-10-21 08:11:00,67.0,22.9,29.41,NNW,329,0.8,1.1,18,-99.99,,,0.00,247.1,rob ver 1A,2013-10-21 15:11:00,
2013-10-21 08:12:00,65.2,21.5,29.47,SW,219,3.1,3.5,18,-99.99,,,0.00,251.4,rob ver 1B,2013-10-21 15:12:00,
2013-10-21 08:13:00,65.2,21.4,29.47,SW,226,3.0,3.7,18,-99.99,,,0.00,254.5,rob ver 1B,2013-10-21 15:13:00,
2013-10-21 08:14:00,65.0,21.4,29.47,SW,233,2.9,3.4,18,-99.99,,,0.00,258.3,rob ver 1B,2013-10-21 15:14:00,
2013-10-21 08:15:00,65.0,21.5,29.47,SW,232,2.9,3.2,18,-99.99,,,0.00,261.6,rob ver 1B,2013-10-21 15:15:00,
2013-10-21 08:16:00,68.3,24.1,29.41,NNW,328,0.7,1.0,18,-99.99,,,0.00,263.6,rob ver 1A,2013-10-21 15:16:00,
2013-10-21 08:17:00,64.9,21.3,29.47,WSW,237,2.5,2.9,18,-99.99,,,0.00,267.9,rob ver 1B,2013-10-21 15:17:00,
2013-10-21 08:18:00,65.0,21.6,29.47,SW,228,2.5,3.0,18,-99.99,,,0.00,271.2,rob ver 1B,2013-10-21 15:18:00,
2013-10-21 08:19:00,65.2,21.8,29.47,SW,227,2.6,3.4,18,-99.99,,,0.00,274.5,rob ver 1B,2013-10-21 15:19:00,
2013-10-21 08:20:00,65.3,21.2,29.47,WSW,242,2.8,3.3,18,-99.99,,,0.00,277.6,rob ver 1B,2013-10-21 15:20:00,
2013-10-21 08:21:00,67.8,25.3,29.41,NNW,331,1.3,1.6,19,-99.99,,,0.00,280.8,rob ver 1A,2013-10-21 15:21:00,
2013-10-21 08:22:00,65.3,21.0,29.47,SW,236,2.8,3.3,18,-99.99,,,0.00,284.4,rob ver 1B,2013-10-21 15:22:00,
2013-10-21 08:23:00,65.3,21.1,29.47,SW,234,2.5,3.0,18,-99.99,,,0.00,287.7,rob ver 1B,2013-10-21 15:23:00,
2013-10-21 08:24:00,65.3,21.2,29.47,SW,236,2.5,3.2,18,-99.99,,,0.00,291.3,rob ver 1B,2013-10-21 15:24:00,
2013-10-21 08:25:00,65.3,21.2,29.47,WSW,243,2.7,3.4,18,-99.99,,,0.00,294.8,rob ver 1B,2013-10-21 15:25:00,
2013-10-21 08:26:00,67.3,26.4,29.41,WNW,301,1.3,2.1,21,-99.99,,,0.00,300.5,rob ver 1A,2013-10-21 15:26:00,
2013-10-21 08:27:00,65.4,21.3,29.47,WSW,243,2.7,3.3,18,-99.99,,,0.00,302.2,rob ver 1B,2013-10-21 15:27:00,
2013-10-21 08:28:00,65.5,21.5,29.47,WSW,244,2.6,3.1,18,-99.99,,,0.00,305.3,rob ver 1B,2013-10-21 15:28:00,
2013-10-21 08:29:00,65.7,21.8,29.47,WSW,252,2.1,2.6,18,-99.99,,,0.00,308.6,rob ver 1B,2013-10-21 15:29:00,
2013-10-21 08:30:00,65.9,21.4,29.47,West,259,2.2,2.6,17,-99.99,,,0.00,312.1,rob ver 1B,2013-10-21 15:30:00,
2013-10-21 08:31:00,67.8,27.5,29.41,WSW,248,0.9,1.6,21,-99.99,,,0.00,317,rob ver 1A,2013-10-21 15:31:00,
2013-10-21 08:32:00,66.1,21.7,29.47,WSW,250,2.8,3.7,18,-99.99,,,0.00,318.7,rob ver 1B,2013-10-21 15:32:00,
2013-10-21 08:33:00,66.0,21.8,29.47,WSW,249,3.7,4.5,18,-99.99,,,0.00,321.6,rob ver 1B,2013-10-21 15:33:00,
2013-10-21 08:34:00,65.9,21.9,29.47,WSW,253,3.2,3.8,18,-99.99,,,0.00,325.3,rob ver 1B,2013-10-21 15:34:00,
2013-10-21 08:35:00,65.9,22.0,29.47,West,261,3.1,3.5,18,-99.99,,,0.00,328.9,rob ver 1B,2013-10-21 15:35:00,
2013-10-21 08:36:00,68.5,27.5,29.41,WSW,254,0.6,0.9,21,-99.99,,,0.00,333.8,rob ver 1A,2013-10-21 15:36:00,
2013-10-21 08:37:00,66.1,21.9,29.47,WSW,254,3.1,4.2,18,-99.99,,,0.00,335.2,rob ver 1B,2013-10-21 15:37:00,
2013-10-21 08:38:00,66.3,21.9,29.47,West,264,2.2,2.8,18,-99.99,,,0.00,338.4,rob ver 1B,2013-10-21 15:38:00,
2013-10-21 08:39:00,66.5,21.7,29.47,West,274,2.9,3.8,17,-99.99,,,0.00,341.7,rob ver 1B,2013-10-21 15:39:00,
2013-10-21 08:40:00,66.6,21.5,29.47,West,268,2.7,3.1,17,-99.99,,,0.00,345,rob ver 1B,2013-10-21 15:40:00,
2013-10-21 08:41:00,66.7,21.7,29.47,West,259,2.4,3.1,17,-99.99,,,0.00,348.3,rob ver 1B,2013-10-21 15:41:00,
2013-10-21 08:42:00,67.7,27.4,29.44,NNW,332,2.3,2.8,22,-99.99,,,0.00,350.5,rob ver 1A,2013-10-21 15:42:00,
2013-10-21 08:43:00,66.8,21.7,29.47,WNW,282,2.5,3.0,17,-99.99,,,0.00,354.9,rob ver 1B,2013-10-21 15:43:00,
2013-10-21 08:44:00,67.0,21.9,29.47,West,273,2.6,3.2,17,-99.99,,,0.00,358.2,rob ver 1B,2013-10-21 15:44:00,
2013-10-21 08:45:00,67.2,21.9,29.47,West,271,2.4,3.7,17,-99.99,,,0.00,361.5,rob ver 1B,2013-10-21 15:45:00,
2013-10-21 08:46:00,67.3,21.9,29.47,West,273,2.7,3.3,17,-99.99,,,0.00,364.3,rob ver 1B,2013-10-21 15:46:00,
2013-10-21 08:47:00,68.2,28.4,29.44,WNW,283,0.8,1.4,22,-99.99,,,0.00,366.8,rob ver 1A,2013-10-21 15:47:00,
2013-10-21 08:48:00,67.4,21.9,29.47,West,278,2.8,3.7,17,-99.99,,,0.00,371.1,rob ver 1B,2013-10-21 15:48:00,
2013-10-21 08:49:00,67.5,21.9,29.47,WNW,287,3.4,4.4,17,-99.99,,,0.00,373.4,rob ver 1B,2013-10-21 15:49:00,
2013-10-21 08:50:00,67.5,22.0,29.47,West,279,3.2,4.4,17,-99.99,,,0.00,376.9,rob ver 1B,2013-10-21 15:50:00,
2013-10-21 08:51:00,67.6,22.4,29.47,WNW,285,3.3,3.8,17,-99.99,,,0.00,380.8,rob ver 1B,2013-10-21 15:51:00,
2013-10-21 08:52:00,69.7,28.9,29.44,SSE,153,0.6,1.1,21,-99.99,,,0.00,382.6,rob ver 1A,2013-10-21 15:52:00,
2013-10-21 08:53:00,67.8,22.4,29.47,WNW,295,3.1,4.0,17,-99.99,,,0.00,386.6,rob ver 1B,2013-10-21 15:53:00,
2013-10-21 08:54:00,67.9,22.1,29.47,WNW,283,3.4,4.0,17,-99.99,,,0.00,389.6,rob ver 1B,2013-10-21 15:54:00,
2013-10-21 08:55:00,68.0,22.3,29.47,West,278,3.0,3.8,17,-99.99,,,0.00,393.4,rob ver 1B,2013-10-21 15:55:00,
2013-10-21 08:56:00,68.0,22.3,29.47,West,278,2.8,3.8,17,-99.99,,,0.00,396.2,rob ver 1B,2013-10-21 15:56:00,
2013-10-21 08:57:00,72.0,28.2,29.44,East,86,0.5,1.3,18,-99.99,,,0.00,399.3,rob ver 1A,2013-10-21 15:57:00,
2013-10-21 08:58:00,68.2,22.7,29.47,WNW,295,2.2,3.8,17,-99.99,,,0.00,402.3,rob ver 1B,2013-10-21 15:58:00,
2013-10-21 08:59:00,68.5,22.5,29.47,WNW,295,2.9,3.9,17,-99.99,,,0.00,405.7,rob ver 1B,2013-10-21 15:59:00,
2013-10-21 09:00:00,68.6,22.4,29.47,WNW,289,1.9,2.8,17,-99.99,,,0.00,407.7,rob ver 1B,2013-10-21 16:00:00,
2013-10-21 09:01:00,69.0,22.6,29.47,WNW,288,1.5,2.5,16,-99.99,,,0.00,411,rob ver 1B,2013-10-21 16:01:00,
2013-10-21 09:02:00,71.5,27.5,29.44,NE,36,1.3,1.9,19,-99.99,,,0.00,415,rob ver 1A,2013-10-21 16:02:00,
2013-10-21 09:03:00,69.4,22.6,29.47,West,279,1.7,2.2,16,-99.99,,,0.00,418.2,rob ver 1B,2013-10-21 16:03:00,
2013-10-21 09:04:00,69.6,22.7,29.47,WNW,303,2.1,3.1,16,-99.99,,,0.00,420.9,rob ver 1B,2013-10-21 16:04:00,
2013-10-21 09:05:00,69.7,22.6,29.47,West,280,2.6,3.3,16,-99.99,,,0.00,424.4,rob ver 1B,2013-10-21 16:05:00,
2013-10-21 09:06:00,69.6,22.8,29.47,West,259,1.9,2.6,16,-99.99,,,0.00,426.7,rob ver 1B,2013-10-21 16:06:00,
2013-10-21 09:07:00,73.0,26.0,29.44,ENE,66,1.3,2.1,16,-99.99,,,0.00,429.4,rob ver 1A,2013-10-21 16:07:00,
2013-10-21 09:08:00,69.8,22.9,29.47,WSW,249,2.1,2.7,16,-99.99,,,0.00,432.8,rob ver 1B,2013-10-21 16:08:00,
2013-10-21 09:09:00,69.9,22.7,29.47,WSW,256,2.7,3.4,16,-99.99,,,0.00,435.9,rob ver 1B,2013-10-21 16:09:00,
2013-10-21 09:10:00,69.8,22.6,29.47,WSW,237,2.6,3.3,16,-99.99,,,0.00,439.7,rob ver 1B,2013-10-21 16:10:00,
2013-10-21 09:11:00,69.8,22.7,29.47,WSW,253,2.4,3.4,16,-99.99,,,0.00,442.3,rob ver 1B,2013-10-21 16:11:00,
2013-10-21 09:12:00,73.7,25.8,29.44,ESE,112,0.4,0.9,16,-99.99,,,0.00,444.6,rob ver 1A,2013-10-21 16:12:00,
2013-10-21 09:13:00,70.3,22.7,29.47,WSW,244,1.5,2.9,15,-99.99,,,0.00,447.9,rob ver 1B,2013-10-21 16:13:00,
2013-10-21 09:14:00,70.5,21.6,29.47,SW,221,2.1,3.2,15,-99.99,,,0.00,450.7,rob ver 1B,2013-10-21 16:14:00,
2013-10-21 09:15:00,70.6,21.5,29.47,WSW,246,2.9,3.7,15,-99.99,,,0.00,454.2,rob ver 1B,2013-10-21 16:15:00,
2013-10-21 09:16:00,70.4,21.3,29.47,WSW,250,2.6,4.0,15,-99.99,,,0.00,456.8,rob ver 1B,2013-10-21 16:16:00,
2013-10-21 09:17:00,73.4,24.4,29.44,NNE,29,2.1,3.4,15,-99.99,,,0.00,460.1,rob ver 1A,2013-10-21 16:17:00,
2013-10-21 09:18:00,70.2,21.8,29.47,WSW,256,3.2,4.0,15,-99.99,,,0.00,462.7,rob ver 1B,2013-10-21 16:18:00,
2013-10-21 09:19:00,70.2,21.4,29.47,WSW,245,3.2,4.2,15,-99.99,,,0.00,464.4,rob ver 1B,2013-10-21 16:19:00,
2013-10-21 09:20:00,70.2,21.0,29.47,SW,230,2.9,4.0,15,-99.99,,,0.00,467.2,rob ver 1B,2013-10-21 16:20:00,
2013-10-21 09:21:00,70.3,21.5,29.47,SW,230,2.9,4.8,15,-99.99,,,0.00,470.1,rob ver 1B,2013-10-21 16:21:00,
2013-10-21 09:22:00,74.5,24.3,29.44,NE,34,0.7,1.0,15,-99.99,,,0.00,474.6,rob ver 1A,2013-10-21 16:22:00,
2013-10-21 09:23:00,70.4,20.9,29.47,West,265,2.6,3.9,15,-99.99,,,0.00,475.9,rob ver 1B,2013-10-21 16:23:00,
2013-10-21 09:24:00,70.4,20.9,29.47,West,272,3.6,4.8,15,-99.99,,,0.00,478.5,rob ver 1B,2013-10-21 16:24:00,
2013-10-21 09:25:00,70.4,20.8,29.47,West,265,3.7,4.9,15,-99.99,,,0.00,481.2,rob ver 1B,2013-10-21 16:25:00,
2013-10-21 09:26:00,70.4,21.0,29.47,West,269,3.6,4.3,15,-99.99,,,0.00,483.2,rob ver 1B,2013-10-21 16:26:00,
2013-10-21 09:27:00,73.8,22.9,29.44,ENE,62,2.4,3.0,15,-99.99,,,0.00,490.1,rob ver 1A,2013-10-21 16:27:00,
2013-10-21 09:28:00,70.4,20.8,29.47,WSW,255,3.5,4.4,15,-99.99,,,0.00,489.4,rob ver 1B,2013-10-21 16:28:00,
2013-10-21 09:29:00,70.5,20.9,29.47,West,260,3.3,5.4,15,-99.99,,,0.00,492.7,rob ver 1B,2013-10-21 16:29:00,
2013-10-21 09:30:00,70.6,20.7,29.47,West,272,3.5,4.5,14,-99.99,,,0.00,495.7,rob ver 1B,2013-10-21 16:30:00,
2013-10-21 09:31:00,70.7,20.0,29.47,WNW,285,4.1,5.0,14,-99.99,,,0.00,497.8,rob ver 1B,2013-10-21 16:31:00,
2013-10-21 09:32:00,73.7,22.3,29.44,ENE,61,2.0,3.1,14,-99.99,,,0.00,505.9,rob ver 1A,2013-10-21 16:32:00,
2013-10-21 09:33:00,70.6,20.6,29.47,WNW,295,4.2,5.4,14,-99.99,,,0.00,503.6,rob ver 1B,2013-10-21 16:33:00,
2013-10-21 09:34:00,70.7,20.4,29.47,WNW,289,3.9,5.4,14,-99.99,,,0.00,506.2,rob ver 1B,2013-10-21 16:34:00,
2013-10-21 09:35:00,70.8,20.5,29.47,WNW,289,4.8,5.5,15,-99.99,,,0.00,509,rob ver 1B,2013-10-21 16:35:00,
2013-10-21 09:36:00,70.7,20.6,29.47,WNW,283,4.0,5.1,14,-99.99,,,0.00,512.2,rob ver 1B,2013-10-21 16:36:00,
2013-10-21 09:37:00,70.8,21.0,29.47,WNW,286,4.6,5.7,15,-99.99,,,0.00,514.1,rob ver 1B,2013-10-21 16:37:00,
2013-10-21 09:38:00,74.0,22.1,29.44,NE,54,3.5,4.4,14,-99.99,,,0.00,519.4,rob ver 1A,2013-10-21 16:38:00,
2013-10-21 09:39:00,71.2,21.3,29.47,WNW,290,4.1,6.1,14,-99.99,,,0.00,520.1,rob ver 1B,2013-10-21 16:39:00,
2013-10-21 09:40:00,71.3,20.9,29.47,West,276,4.1,6.6,14,-99.99,,,0.00,522.7,rob ver 1B,2013-10-21 16:40:00,
2013-10-21 09:41:00,71.4,21.1,29.47,WNW,301,4.2,5.5,14,-99.99,,,0.00,524.9,rob ver 1B,2013-10-21 16:41:00,
2013-10-21 09:42:00,71.6,21.0,29.47,West,269,3.8,4.8,14,-99.99,,,0.00,527.7,rob ver 1B,2013-10-21 16:42:00,
2013-10-21 09:43:00,74.3,22.2,29.44,NE,43,2.6,3.4,14,-99.99,,,0.00,533.3,rob ver 1A,2013-10-21 16:43:00,
2013-10-21 09:44:00,71.8,21.4,29.47,WNW,298,4.4,5.8,14,-99.99,,,0.00,531.9,rob ver 1B,2013-10-21 16:44:00,
2013-10-21 09:45:00,72.0,20.5,29.47,WNW,298,4.9,6.4,14,-99.99,,,0.00,534.9,rob ver 1B,2013-10-21 16:45:00,
2013-10-21 09:46:00,72.1,20.5,29.47,NW,307,4.9,6.1,14,-99.99,,,0.00,537.5,rob ver 1B,2013-10-21 16:46:00,
2013-10-21 09:47:00,72.2,20.3,29.47,West,279,5.6,6.6,13,-99.99,,,0.00,539.7,rob ver 1B,2013-10-21 16:47:00,
2013-10-21 09:48:00,74.5,22.4,29.44,North,349,2.1,3.8,14,-99.99,,,0.00,543.9,rob ver 1A,2013-10-21 16:48:00,
2013-10-21 09:49:00,72.4,20.1,29.47,West,277,5.6,6.7,13,-99.99,,,0.00,545,rob ver 1B,2013-10-21 16:49:00,
2013-10-21 09:50:00,72.5,20.3,29.47,West,277,4.8,5.6,13,-99.99,,,0.00,547.6,rob ver 1B,2013-10-21 16:50:00,
2013-10-21 09:51:00,72.6,20.5,29.47,West,273,5.1,6.3,13,-99.99,,,0.00,549.4,rob ver 1B,2013-10-21 16:51:00,
2013-10-21 09:52:00,72.7,20.3,29.47,West,281,5.5,7.1,13,-99.99,,,0.00,552.7,rob ver 1B,2013-10-21 16:52:00,
2013-10-21 09:53:00,75.1,22.1,29.44,NNE,33,3.9,5.4,13,-99.99,,,0.00,557.9,rob ver 1A,2013-10-21 16:53:00,
2013-10-21 09:54:00,72.6,20.4,29.47,WNW,290,5.0,6.4,13,-99.99,,,0.00,557.3,rob ver 1B,2013-10-21 16:54:00,
2013-10-21 09:55:00,72.6,20.3,29.47,WNW,295,5.2,6.6,13,-99.99,,,0.00,560.8,rob ver 1B,2013-10-21 16:55:00,
2013-10-21 09:56:00,72.8,20.3,29.47,West,281,5.6,6.8,13,-99.99,,,0.00,561.3,rob ver 1B,2013-10-21 16:56:00,
2013-10-21 09:57:00,72.8,20.0,29.47,WNW,285,5.5,6.1,13,-99.99,,,0.00,564.6,rob ver 1B,2013-10-21 16:57:00,
2013-10-21 09:58:00,75.2,22.2,29.44,NE,34,1.9,2.9,13,-99.99,,,0.00,570.5,rob ver 1A,2013-10-21 16:58:00,
2013-10-21 09:59:00,72.9,20.1,29.47,West,266,4.2,6.0,13,-99.99,,,0.00,570.2,rob ver 1B,2013-10-21 16:59:00,
2013-10-21 10:00:00,73.2,20.2,29.47,West,281,4.5,6.6,13,-99.99,,,0.00,571.2,rob ver 1B,2013-10-21 17:00:00,
2013-10-21 10:01:00,73.4,20.2,29.47,WNW,295,4.1,6.0,13,-99.99,,,0.00,573.6,rob ver 1B,2013-10-21 17:01:00,
2013-10-21 10:02:00,73.5,20.3,29.47,WNW,285,4.2,5.9,13,-99.99,,,0.00,575.9,rob ver 1B,2013-10-21 17:02:00,
2013-10-21 10:03:00,77.1,23.4,29.44,ESE,105,1.0,1.9,13,-99.99,,,0.00,582.3,rob ver 1A,2013-10-21 17:03:00,
2013-10-21 10:04:00,73.9,20.3,29.47,West,280,4.2,5.9,13,-99.99,,,0.00,579.7,rob ver 1B,2013-10-21 17:04:00,
2013-10-21 10:05:00,73.9,20.2,29.47,West,270,4.7,5.6,13,-99.99,,,0.00,583,rob ver 1B,2013-10-21 17:05:00,
2013-10-21 10:06:00,73.9,20.4,29.47,West,276,4.3,5.6,13,-99.99,,,0.00,585,rob ver 1B,2013-10-21 17:06:00,
2013-10-21 10:07:00,74.1,20.4,29.47,WNW,294,3.9,5.0,13,-99.99,,,0.00,586.8,rob ver 1B,2013-10-21 17:07:00,
2013-10-21 10:08:00,77.9,23.3,29.44,SSE,164,1.5,2.0,12,-99.99,,,0.00,595.5,rob ver 1A,2013-10-21 17:08:00,
2013-10-21 10:09:00,74.5,20.6,29.47,West,276,4.0,5.6,12,-99.99,,,0.00,591.3,rob ver 1B,2013-10-21 17:09:00,
2013-10-21 10:10:00,74.7,20.3,29.47,WSW,252,3.7,4.2,13,-99.99,,,0.00,594.1,rob ver 1B,2013-10-21 17:10:00,
2013-10-21 10:11:00,74.7,20.4,29.47,West,260,4.5,5.4,12,-99.99,,,0.00,596.2,rob ver 1B,2013-10-21 17:11:00,
2013-10-21 10:12:00,74.6,20.2,29.47,West,272,4.1,5.2,12,-99.99,,,0.00,598.2,rob ver 1B,2013-10-21 17:12:00,
2013-10-21 10:13:00,78.5,23.4,29.44,ESE,105,1.0,1.5,12,-99.99,,,0.00,606.4,rob ver 1A,2013-10-21 17:13:00,
2013-10-21 10:14:00,74.9,20.4,29.47,West,269,3.7,5.1,12,-99.99,,,0.00,602.1,rob ver 1B,2013-10-21 17:14:00,
2013-10-21 10:15:00,75.0,20.3,29.47,WNW,286,3.1,4.6,12,-99.99,,,0.00,604.1,rob ver 1B,2013-10-21 17:15:00,
2013-10-21 10:16:00,75.2,20.5,29.47,West,260,2.6,3.6,12,-99.99,,,0.00,606.6,rob ver 1B,2013-10-21 17:16:00,
2013-10-21 10:17:00,75.5,20.4,29.47,West,266,2.0,4.0,12,-99.99,,,0.00,608.7,rob ver 1B,2013-10-21 17:17:00,
2013-10-21 10:18:00,75.7,20.4,29.47,WNW,288,3.8,5.3,12,-99.99,,,0.00,610.7,rob ver 1B,2013-10-21 17:18:00,
2013-10-21 10:19:00,79.8,23.8,29.44,SW,230,1.9,3.2,12,-99.99,,,0.00,617.1,rob ver 1A,2013-10-21 17:19:00,
2013-10-21 10:20:00,75.6,20.3,29.47,WNW,282,4.3,6.2,12,-99.99,,,0.00,614.8,rob ver 1B,2013-10-21 17:20:00,
2013-10-21 10:21:00,75.5,20.3,29.47,West,276,4.5,5.5,12,-99.99,,,0.00,617.3,rob ver 1B,2013-10-21 17:21:00,
2013-10-21 10:22:00,75.5,20.3,29.47,WSW,243,3.6,4.7,12,-99.99,,,0.00,618.8,rob ver 1B,2013-10-21 17:22:00,
2013-10-21 10:23:00,75.5,20.3,29.47,West,271,5.0,6.6,12,-99.99,,,0.00,621.1,rob ver 1B,2013-10-21 17:23:00,
2013-10-21 10:24:00,78.8,23.5,29.44,WNW,302,2.4,3.9,12,-99.99,,,0.00,627,rob ver 1A,2013-10-21 17:24:00,
2013-10-21 10:25:00,75.6,20.5,29.47,West,264,4.4,9.7,12,-99.99,,,0.00,624.6,rob ver 1B,2013-10-21 17:25:00,
2013-10-21 10:26:00,75.8,20.4,29.47,WNW,295,4.5,5.5,12,-99.99,,,0.00,626.4,rob ver 1B,2013-10-21 17:26:00,
2013-10-21 10:27:00,75.8,20.4,29.47,NW,304,4.5,5.5,12,-99.99,,,0.00,628.8,rob ver 1B,2013-10-21 17:27:00,
2013-10-21 10:28:00,75.9,20.5,29.47,WNW,287,3.3,3.9,12,-99.99,,,0.00,630.5,rob ver 1B,2013-10-21 17:28:00,
2013-10-21 10:29:00,78.6,23.3,29.44,West,266,1.2,2.2,12,-99.99,,,0.00,636.4,rob ver 1A,2013-10-21 17:29:00,
2013-10-21 10:30:00,76.3,20.4,29.47,WNW,288,3.9,5.1,12,-99.99,,,0.00,635.8,rob ver 1B,2013-10-21 17:30:00,
2013-10-21 10:31:00,76.3,20.4,29.47,WSW,253,2.7,3.9,12,-99.99,,,0.00,635.4,rob ver 1B,2013-10-21 17:31:00,
2013-10-21 10:32:00,76.4,20.4,29.47,West,272,4.6,6.0,12,-99.99,,,0.00,637.2,rob ver 1B,2013-10-21 17:32:00,
2013-10-21 10:33:00,76.2,20.3,29.47,West,279,4.7,6.4,12,-99.99,,,0.00,639.2,rob ver 1B,2013-10-21 17:33:00,
2013-10-21 10:34:00,79.7,23.2,29.44,WNW,282,1.9,3.3,12,-99.99,,,0.00,646.3,rob ver 1A,2013-10-21 17:34:00,
2013-10-21 10:35:00,76.4,20.5,29.47,West,279,4.6,6.3,12,-99.99,,,0.00,643.2,rob ver 1B,2013-10-21 17:35:00,
2013-10-21 10:36:00,76.5,20.6,29.47,West,266,4.9,6.3,12,-99.99,,,0.00,644.8,rob ver 1B,2013-10-21 17:36:00,
2013-10-21 10:37:00,76.6,20.7,29.47,WNW,290,5.3,6.8,12,-99.99,,,0.00,646.2,rob ver 1B,2013-10-21 17:37:00,
2013-10-21 10:38:00,76.7,20.8,29.47,WNW,282,4.3,5.8,12,-99.99,,,0.00,648,rob ver 1B,2013-10-21 17:38:00,
2013-10-21 10:39:00,80.1,23.0,29.44,NNW,345,1.4,2.4,12,-99.99,,,0.00,656.8,rob ver 1A,2013-10-21 17:39:00,
2013-10-21 10:40:00,76.8,20.8,29.47,West,273,5.2,7.2,12,-99.99,,,0.00,652.2,rob ver 1B,2013-10-21 17:40:00,
2013-10-21 10:41:00,77.0,20.8,29.47,West,269,3.1,5.1,12,-99.99,,,0.00,653.9,rob ver 1B,2013-10-21 17:41:00,
2013-10-21 10:42:00,77.2,20.8,29.47,WSW,237,4.4,5.6,12,-99.99,,,0.00,656,rob ver 1B,2013-10-21 17:42:00,
2013-10-21 10:43:00,77.3,20.8,29.47,SW,236,3.9,5.6,12,-99.99,,,0.00,656.9,rob ver 1B,2013-10-21 17:43:00,
2013-10-21 10:44:00,80.2,23.5,29.44,SW,230,1.9,2.8,11,-99.99,,,0.00,666,rob ver 1A,2013-10-21 17:44:00,
2013-10-21 10:45:00,77.5,20.9,29.47,WNW,285,4.9,7.2,12,-99.99,,,0.00,660.5,rob ver 1B,2013-10-21 17:45:00,
2013-10-21 10:46:00,77.6,20.8,29.47,WNW,284,5.6,7.2,11,-99.99,,,0.00,662.5,rob ver 1B,2013-10-21 17:46:00,
2013-10-21 10:47:00,77.6,20.8,29.47,WNW,295,4.1,6.6,11,-99.99,,,0.00,662.3,rob ver 1B,2013-10-21 17:47:00,
2013-10-21 10:48:00,77.7,20.7,29.47,West,278,4.8,6.4,11,-99.99,,,0.00,665.8,rob ver 1B,2013-10-21 17:48:00,
2013-10-21 10:49:00,81.1,23.1,29.44,SSW,193,1.1,1.8,11,-99.99,,,0.00,674.5,rob ver 1A,2013-10-21 17:49:00,
2013-10-21 10:50:00,78.0,20.9,29.47,West,275,5.1,6.2,11,-99.99,,,0.00,668.1,rob ver 1B,2013-10-21 17:50:00,
2013-10-21 10:51:00,78.0,20.8,29.47,West,271,6.7,8.1,11,-99.99,,,0.00,670.4,rob ver 1B,2013-10-21 17:51:00,
2013-10-21 10:52:00,77.8,20.8,29.47,West,263,5.0,6.3,11,-99.99,,,0.00,671.7,rob ver 1B,2013-10-21 17:52:00,
2013-10-21 10:53:00,77.8,20.8,29.47,West,267,4.5,6.1,11,-99.99,,,0.00,673.3,rob ver 1B,2013-10-21 17:53:00,
2013-10-21 10:54:00,77.8,20.8,29.47,WSW,258,5.2,7.0,11,-99.99,,,0.00,674.3,rob ver 1B,2013-10-21 17:54:00,
2013-10-21 10:55:00,81.5,23.5,29.44,South,172,2.2,3.2,11,-99.99,,,0.00,682.5,rob ver 1A,2013-10-21 17:55:00,
2013-10-21 10:56:00,77.9,20.9,29.47,West,260,4.9,7.1,11,-99.99,,,0.00,677.1,rob ver 1B,2013-10-21 17:56:00,
2013-10-21 10:57:00,78.0,20.8,29.47,West,268,3.4,5.5,11,-99.99,,,0.00,677.5,rob ver 1B,2013-10-21 17:57:00,
2013-10-21 10:58:00,78.3,21.2,29.47,WNW,292,4.6,7.4,11,-99.99,,,0.00,679.9,rob ver 1B,2013-10-21 17:58:00,
2013-10-21 10:59:00,78.4,20.8,29.47,WNW,290,4.9,7.6,11,-99.99,,,0.00,680.3,rob ver 1B,2013-10-21 17:59:00,
2013-10-21 11:00:00,80.6,23.5,29.44,WNW,287,3.5,4.9,12,-99.99,,,0.00,690,rob ver 1A,2013-10-21 18:00:00,
2013-10-21 11:01:00,78.7,21.0,29.47,West,265,5.5,7.8,11,-99.99,,,0.00,684,rob ver 1B,2013-10-21 18:01:00,
2013-10-21 11:02:00,78.8,20.9,29.47,West,274,5.8,7.9,11,-99.99,,,0.00,685.7,rob ver 1B,2013-10-21 18:02:00,
2013-10-21 11:03:00,78.7,20.9,29.47,WNW,282,4.9,6.7,11,-99.99,,,0.00,686.8,rob ver 1B,2013-10-21 18:03:00,
2013-10-21 11:04:00,78.8,20.8,29.47,West,261,3.9,6.4,11,-99.99,,,0.00,688.3,rob ver 1B,2013-10-21 18:04:00,
2013-10-21 11:05:00,80.0,23.2,29.44,West,266,3.7,4.4,12,-99.99,,,0.00,696.2,rob ver 1A,2013-10-21 18:05:00,
2013-10-21 11:06:00,78.8,20.8,29.47,West,267,4.3,5.5,11,-99.99,,,0.00,690.6,rob ver 1B,2013-10-21 18:06:00,
2013-10-21 11:07:00,79.0,21.1,29.47,WSW,254,5.0,7.2,11,-99.99,,,0.00,690.1,rob ver 1B,2013-10-21 18:07:00,
2013-10-21 11:08:00,79.2,20.7,29.47,West,275,6.4,9.5,11,-99.99,,,0.00,693.9,rob ver 1B,2013-10-21 18:08:00,
2013-10-21 11:09:00,79.1,20.7,29.47,West,272,7.2,9.1,11,-99.99,,,0.00,694.2,rob ver 1B,2013-10-21 18:09:00,
2013-10-21 11:10:00,81.1,22.9,29.44,South,180,2.5,3.4,11,-99.99,,,0.00,704,rob ver 1A,2013-10-21 18:10:00,
2013-10-21 11:11:00,78.8,20.7,29.47,WSW,242,5.9,7.2,11,-99.99,,,0.00,697.5,rob ver 1B,2013-10-21 18:11:00,
2013-10-21 11:12:00,78.8,20.7,29.47,West,262,7.1,9.3,11,-99.99,,,0.00,697.5,rob ver 1B,2013-10-21 18:12:00,
2013-10-21 11:13:00,78.8,20.6,29.47,WSW,254,6.1,7.3,11,-99.99,,,0.00,697.8,rob ver 1B,2013-10-21 18:13:00,
2013-10-21 11:14:00,78.9,20.7,29.47,WSW,242,4.2,6.1,11,-99.99,,,0.00,701,rob ver 1B,2013-10-21 18:14:00,
2013-10-21 11:15:00,81.4,23.0,29.44,SSE,162,1.1,2.6,11,-99.99,,,0.00,710,rob ver 1A,2013-10-21 18:15:00,
2013-10-21 11:16:00,79.2,20.6,29.47,NW,311,5.7,7.6,11,-99.99,,,0.00,702,rob ver 1B,2013-10-21 18:16:00,
2013-10-21 11:17:00,79.3,20.6,29.44,NW,304,4.7,7.2,11,-99.99,,,0.00,704,rob ver 1B,2013-10-21 18:17:00,
2013-10-21 11:18:00,79.4,20.6,29.47,West,272,5.2,7.6,11,-99.99,,,0.00,705,rob ver 1B,2013-10-21 18:18:00,
2013-10-21 11:19:00,79.6,20.7,29.47,WSW,242,4.8,5.9,11,-99.99,,,0.00,707,rob ver 1B,2013-10-21 18:19:00,
2013-10-21 11:20:00,81.9,23.0,29.44,SSE,162,3.1,3.6,11,-99.99,,,0.00,715,rob ver 1A,2013-10-21 18:20:00,
2013-10-21 11:21:00,79.9,20.5,29.44,West,277,5.0,8.9,10,-99.99,,,0.00,709,rob ver 1B,2013-10-21 18:21:00,
2013-10-21 11:22:00,80.0,20.8,29.44,WSW,254,3.2,8.0,10,-99.99,,,0.00,709,rob ver 1B,2013-10-21 18:22:00,
2013-10-21 11:23:00,80.3,20.7,29.44,WNW,293,5.6,8.3,10,-99.99,,,0.00,710,rob ver 1B,2013-10-21 18:23:00,
2013-10-21 11:24:00,80.4,20.8,29.47,West,275,6.1,8.7,10,-99.99,,,0.00,711,rob ver 1B,2013-10-21 18:24:00,
2013-10-21 11:25:00,81.4,22.7,29.44,SE,145,3.2,4.4,11,-99.99,,,0.00,721,rob ver 1A,2013-10-21 18:25:00,
2013-10-21 11:26:00,80.5,20.8,29.44,WSW,256,2.8,4.3,10,-99.99,,,0.00,714,rob ver 1B,2013-10-21 18:26:00,
2013-10-21 11:27:00,80.8,20.8,29.44,West,264,4.7,7.5,10,-99.99,,,0.00,714,rob ver 1B,2013-10-21 18:27:00,
2013-10-21 11:28:00,80.8,20.6,29.44,West,265,5.1,7.0,10,-99.99,,,0.00,715,rob ver 1B,2013-10-21 18:28:00,
2013-10-21 11:29:00,80.8,20.8,29.44,WNW,287,5.4,7.1,10,-99.99,,,0.00,717,rob ver 1B,2013-10-21 18:29:00,
2013-10-21 11:30:00,82.5,22.5,29.44,SSE,163,2.8,3.6,11,-99.99,,,0.00,726,rob ver 1A,2013-10-21 18:30:00,
2013-10-21 11:31:00,80.9,20.6,29.44,West,259,5.5,6.8,10,-99.99,,,0.00,718,rob ver 1B,2013-10-21 18:31:00,
2013-10-21 11:32:00,81.1,20.6,29.44,West,269,6.9,9.4,10,-99.99,,,0.00,718,rob ver 1B,2013-10-21 18:32:00,
2013-10-21 11:33:00,81.1,20.6,29.44,West,278,5.8,7.2,10,-99.99,,,0.00,719,rob ver 1B,2013-10-21 18:33:00,
2013-10-21 11:34:00,81.1,20.5,29.44,WNW,290,4.6,6.6,10,-99.99,,,0.00,719,rob ver 1B,2013-10-21 18:34:00,
2013-10-21 11:35:00,81.1,20.6,29.44,WNW,289,4.6,7.1,10,-99.99,,,0.00,722,rob ver 1B,2013-10-21 18:35:00,
2013-10-21 11:36:00,83.0,22.9,29.44,South,174,2.6,4.9,10,-99.99,,,0.00,730,rob ver 1A,2013-10-21 18:36:00,
2013-10-21 11:37:00,81.4,20.6,29.44,West,278,5.8,6.7,10,-99.99,,,0.00,722,rob ver 1B,2013-10-21 18:37:00,
2013-10-21 11:38:00,81.4,20.6,29.44,West,273,3.9,6.5,10,-99.99,,,0.00,723,rob ver 1B,2013-10-21 18:38:00,
2013-10-21 11:39:00,81.5,20.6,29.44,West,265,6.0,8.3,10,-99.99,,,0.00,724,rob ver 1B,2013-10-21 18:39:00,
2013-10-21 11:40:00,81.3,20.5,29.44,West,260,4.1,5.4,10,-99.99,,,0.00,724,rob ver 1B,2013-10-21 18:40:00,
2013-10-21 11:41:00,83.0,22.8,29.44,NE,51,0.6,1.5,10,-99.99,,,0.00,734,rob ver 1A,2013-10-21 18:41:00,
2013-10-21 11:42:00,81.6,20.5,29.44,West,280,4.9,6.0,10,-99.99,,,0.00,726,rob ver 1B,2013-10-21 18:42:00,
2013-10-21 11:43:00,81.6,20.6,29.44,West,259,5.4,7.2,10,-99.99,,,0.00,727,rob ver 1B,2013-10-21 18:43:00,
2013-10-21 11:44:00,81.6,20.5,29.44,West,260,3.4,6.4,10,-99.99,,,0.00,727,rob ver 1B,2013-10-21 18:44:00,
2013-10-21 11:45:00,81.8,20.9,29.44,West,268,4.6,7.1,10,-99.99,,,0.00,728,rob ver 1B,2013-10-21 18:45:00,
2013-10-21 11:46:00,84.7,23.2,29.44,SW,232,2.0,3.6,10,-99.99,,,0.00,738,rob ver 1A,2013-10-21 18:46:00,
2013-10-21 11:47:00,82.5,20.7,29.44,WNW,291,4.1,5.4,10,-99.99,,,0.00,729,rob ver 1B,2013-10-21 18:47:00,
2013-10-21 11:48:00,82.6,20.7,29.44,NW,309,1.9,4.7,10,-99.99,,,0.00,730,rob ver 1B,2013-10-21 18:48:00,
2013-10-21 11:49:00,82.9,20.9,29.44,WNW,297,3.6,6.3,9,-99.99,,,0.00,730,rob ver 1B,2013-10-21 18:49:00,
2013-10-21 11:50:00,83.0,20.7,29.44,NW,309,6.0,7.5,9,-99.99,,,0.00,730,rob ver 1B,2013-10-21 18:50:00,
2013-10-21 11:51:00,82.8,23.0,29.44,SW,235,3.7,5.1,10,-99.99,,,0.00,740,rob ver 1A,2013-10-21 18:51:00,
2013-10-21 11:52:00,82.5,20.8,29.44,WNW,293,5.4,7.0,9,-99.99,,,0.00,733,rob ver 1B,2013-10-21 18:52:00,
2013-10-21 11:53:00,82.5,20.5,29.44,WNW,285,4.0,6.6,10,-99.99,,,0.00,731,rob ver 1B,2013-10-21 18:53:00,
2013-10-21 11:54:00,82.7,20.7,29.44,South,181,1.6,2.2,9,-99.99,,,0.00,733,rob ver 1B,2013-10-21 18:54:00,
2013-10-21 11:55:00,83.0,20.9,29.44,SSW,210,1.7,5.1,9,-99.99,,,0.00,734,rob ver 1B,2013-10-21 18:55:00,
2013-10-21 11:56:00,82.5,22.9,29.44,North,353,2.1,3.2,11,-99.99,,,0.00,743,rob ver 1A,2013-10-21 18:56:00,
2013-10-21 11:57:00,83.3,20.6,29.44,WNW,293,4.1,6.2,9,-99.99,,,0.00,735,rob ver 1B,2013-10-21 18:57:00,
2013-10-21 11:58:00,83.2,20.7,29.44,WNW,295,4.6,7.0,9,-99.99,,,0.00,735,rob ver 1B,2013-10-21 18:58:00,
2013-10-21 11:59:00,83.3,20.8,29.44,NW,309,5.0,7.0,9,-99.99,,,0.00,735,rob ver 1B,2013-10-21 18:59:00,
2013-10-21 12:00:00,83.2,20.5,29.44,NW,317,3.6,5.6,9,-99.99,,,0.00,735,rob ver 1B,2013-10-21 19:00:00,
2013-10-21 12:01:00,85.2,23.2,29.44,South,180,2.2,4.5,10,-99.99,,,0.00,746,rob ver 1A,2013-10-21 19:01:00,
2013-10-21 12:02:00,83.0,20.7,29.44,NNW,346,2.6,4.3,9,-99.99,,,0.00,735,rob ver 1B,2013-10-21 19:02:00,
2013-10-21 12:03:00,83.5,20.5,29.44,WSW,245,1.5,2.6,9,-99.99,,,0.00,736,rob ver 1B,2013-10-21 19:03:00,
2013-10-21 12:04:00,84.1,20.7,29.44,West,265,1.6,3.9,9,-99.99,,,0.00,736,rob ver 1B,2013-10-21 19:04:00,
2013-10-21 12:05:00,84.3,20.8,29.44,WSW,238,5.1,7.4,9,-99.99,,,0.00,736,rob ver 1B,2013-10-21 19:05:00,
2013-10-21 12:06:00,85.5,23.1,29.44,SW,216,3.1,4.8,10,-99.99,,,0.00,746,rob ver 1A,2013-10-21 19:06:00,
2013-10-21 12:07:00,83.8,20.5,29.44,WSW,255,5.3,7.7,9,-99.99,,,0.00,738,rob ver 1B,2013-10-21 19:07:00,
2013-10-21 12:08:00,83.6,20.7,29.44,West,263,2.4,3.6,9,-99.99,,,0.00,737,rob ver 1B,2013-10-21 19:08:00,
2013-10-21 12:09:00,83.7,20.6,29.44,West,267,2.6,5.3,9,-99.99,,,0.00,737,rob ver 1B,2013-10-21 19:09:00,
2013-10-21 12:10:00,83.9,21.1,29.44,WSW,258,5.0,8.7,9,-99.99,,,0.00,738,rob ver 1B,2013-10-21 19:10:00,
2013-10-21 12:11:00,83.7,22.8,29.41,SSW,211,5.3,6.8,10,-99.99,,,0.00,748,rob ver 1A,2013-10-21 19:11:00,
2013-10-21 12:12:00,84.1,20.7,29.44,WNW,291,5.2,7.4,9,-99.99,,,0.00,739,rob ver 1B,2013-10-21 19:12:00,
2013-10-21 12:13:00,84.0,20.8,29.44,WNW,289,4.6,6.2,9,-99.99,,,0.00,738,rob ver 1B,2013-10-21 19:13:00,
2013-10-21 12:14:00,84.1,20.7,29.44,WNW,282,4.7,7.1,9,-99.99,,,0.00,738,rob ver 1B,2013-10-21 19:14:00,
2013-10-21 12:15:00,84.0,20.7,29.44,WNW,292,6.1,7.7,9,-99.99,,,0.00,738,rob ver 1B,2013-10-21 19:15:00,
2013-10-21 12:16:00,83.8,22.5,29.41,NE,56,1.7,3.4,10,-99.99,,,0.00,750,rob ver 1A,2013-10-21 19:16:00,
2013-10-21 12:17:00,84.0,20.7,29.44,West,271,2.9,4.5,9,-99.99,,,0.00,739,rob ver 1B,2013-10-21 19:17:00,
2013-10-21 12:18:00,84.1,20.9,29.44,WSW,254,5.4,7.4,9,-99.99,,,0.00,739,rob ver 1B,2013-10-21 19:18:00,
2013-10-21 12:19:00,84.3,20.7,29.44,WSW,250,7.1,8.5,9,-99.99,,,0.00,739,rob ver 1B,2013-10-21 19:19:00,
2013-10-21 12:20:00,84.1,20.6,29.44,SW,227,4.8,7.4,9,-99.99,,,0.00,739,rob ver 1B,2013-10-21 19:20:00,
2013-10-21 12:21:00,84.4,23.0,29.41,SSE,163,2.2,5.0,10,-99.99,,,0.00,749,rob ver 1A,2013-10-21 19:21:00,
2013-10-21 12:22:00,84.3,20.8,29.44,WSW,254,5.9,9.4,9,-99.99,,,0.00,738,rob ver 1B,2013-10-21 19:22:00,
2013-10-21 12:23:00,84.4,20.7,29.44,SW,231,5.5,8.2,9,-99.99,,,0.00,738,rob ver 1B,2013-10-21 19:23:00,
2013-10-21 12:24:00,84.3,20.7,29.41,WSW,257,5.4,8.4,9,-99.99,,,0.00,739,rob ver 1B,2013-10-21 19:24:00,
2013-10-21 12:25:00,84.1,20.8,29.41,West,269,5.6,8.6,9,-99.99,,,0.00,738,rob ver 1B,2013-10-21 19:25:00,
2013-10-21 12:26:00,84.2,20.9,29.41,WSW,254,5.9,8.2,9,-99.99,,,0.00,738,rob ver 1B,2013-10-21 19:26:00,
2013-10-21 12:27:00,84.2,22.4,29.41,West,261,5.0,6.9,10,-99.99,,,0.00,748,rob ver 1A,2013-10-21 19:27:00,
2013-10-21 12:28:00,84.6,20.8,29.41,SW,236,4.9,7.6,9,-99.99,,,0.00,738,rob ver 1B,2013-10-21 19:28:00,
2013-10-21 12:29:00,84.6,20.8,29.41,WSW,248,4.9,7.3,9,-99.99,,,0.00,738,rob ver 1B,2013-10-21 19:29:00,
2013-10-21 12:30:00,84.8,21.0,29.41,West,262,8.2,10.7,9,-99.99,,,0.00,737,rob ver 1B,2013-10-21 19:30:00,
2013-10-21 12:31:00,84.8,20.7,29.41,West,267,6.4,8.0,9,-99.99,,,0.00,737,rob ver 1B,2013-10-21 19:31:00,
2013-10-21 12:32:00,84.1,22.3,29.41,SW,219,3.9,5.2,10,-99.99,,,0.00,748,rob ver 1A,2013-10-21 19:32:00,
2013-10-21 12:37:00,84.0,21.8,29.41,SW,233,5.6,7.9,10,-99.99,,,0.00,747,rob ver 1A,2013-10-21 19:37:00,
2013-10-21 12:42:00,83.7,21.4,29.41,SW,232,4.4,7.0,9,-99.99,,,0.00,746,rob ver 1A,2013-10-21 19:42:00,
2013-10-21 12:47:00,84.5,21.9,29.41,West,268,1.4,2.7,9,-99.99,,,0.00,744,rob ver 1A,2013-10-21 19:47:00,
2013-10-21 12:52:00,86.5,22.2,29.41,SW,233,2.2,3.6,9,-99.99,,,0.00,742,rob ver 1A,2013-10-21 19:52:00,
2013-10-21 12:57:00,86.1,22.1,29.41,SSW,205,5.9,7.6,9,-99.99,,,0.00,739,rob ver 1A,2013-10-21 19:57:00,
2013-10-21 13:03:00,85.6,21.6,29.41,SSW,192,3.6,6.3,9,-99.99,,,0.00,736,rob ver 1A,2013-10-21 20:03:00,
2013-10-21 13:08:00,85.6,21.9,29.41,West,262,2.8,5.0,9,-99.99,,,0.00,731,rob ver 1A,2013-10-21 20:08:00,
2013-10-21 13:13:00,86.4,22.4,29.41,WSW,241,2.0,5.8,9,-99.99,,,0.00,726,rob ver 1A,2013-10-21 20:13:00,
2013-10-21 13:18:00,86.1,22.7,29.38,West,263,1.7,3.2,9,-99.99,,,0.00,719,rob ver 1A,2013-10-21 20:18:00,
2013-10-21 13:23:00,87.7,22.5,29.41,SE,131,1.5,2.6,9,-99.99,,,0.00,715,rob ver 1A,2013-10-21 20:23:00,
2013-10-21 13:29:00,86.8,23.0,29.38,WSW,252,4.3,6.9,9,-99.99,,,0.00,710,rob ver 1A,2013-10-21 20:29:00,
2013-10-21 13:34:00,86.7,22.5,29.38,SSE,159,2.7,4.8,9,-99.99,,,0.00,702,rob ver 1A,2013-10-21 20:34:00,
2013-10-21 13:39:00,87.6,22.9,29.38,SW,225,3.7,5.6,9,-99.99,,,0.00,696,rob ver 1A,2013-10-21 20:39:00,
2013-10-21 13:44:00,87.0,22.8,29.38,SW,223,4.4,6.2,9,-99.99,,,0.00,687.9,rob ver 1A,2013-10-21 20:44:00,
2013-10-21 13:49:00,88.0,22.4,29.38,NE,50,1.7,3.1,9,-99.99,,,0.00,682.3,rob ver 1A,2013-10-21 20:49:00,
2013-10-21 13:54:00,88.4,22.6,29.38,WSW,239,5.7,7.5,9,-99.99,,,0.00,674.5,rob ver 1A,2013-10-21 20:54:00,
2013-10-21 13:59:00,86.8,22.4,29.38,WNW,299,2.8,3.9,9,-99.99,,,0.00,665.9,rob ver 1A,2013-10-21 20:59:00,
2013-10-21 14:04:00,87.8,22.4,29.38,West,273,4.4,7.1,9,-99.99,,,0.00,656.7,rob ver 1A,2013-10-21 21:04:00,
2013-10-21 14:09:00,88.1,22.2,29.38,West,263,3.4,5.4,9,-99.99,,,0.00,646.5,rob ver 1A,2013-10-21 21:09:00,
2013-10-21 14:15:00,87.5,22.4,29.38,WNW,285,5.8,8.1,9,-99.99,,,0.00,636.6,rob ver 1A,2013-10-21 21:15:00,
2013-10-21 14:20:00,87.9,22.4,29.38,SSW,199,4.9,6.7,9,-99.99,,,0.00,627.5,rob ver 1A,2013-10-21 21:20:00,
2013-10-21 14:25:00,87.5,22.6,29.38,ESE,110,2.4,3.7,9,-99.99,,,0.00,617.3,rob ver 1A,2013-10-21 21:25:00,
2013-10-21 14:30:00,88.0,22.5,29.38,SE,146,3.4,5.5,9,-99.99,,,0.00,607,rob ver 1A,2013-10-21 21:30:00,
2013-10-21 14:35:00,88.5,22.3,29.38,South,189,6.2,7.5,8,-99.99,,,0.00,595.7,rob ver 1A,2013-10-21 21:35:00,
2013-10-21 14:40:00,87.9,21.9,29.38,WSW,238,3.6,5.1,9,-99.99,,,0.00,583.9,rob ver 1A,2013-10-21 21:40:00,
2013-10-21 14:45:00,88.4,21.6,29.38,SW,234,3.3,5.1,8,-99.99,,,0.00,571.2,rob ver 1A,2013-10-21 21:45:00,
2013-10-21 14:50:00,88.5,22.1,29.38,SSW,204,5.4,7.0,8,-99.99,,,0.00,558.9,rob ver 1A,2013-10-21 21:50:00,
2013-10-21 14:56:00,88.2,21.4,29.38,WNW,289,2.7,3.7,8,-99.99,,,0.00,546.9,rob ver 1A,2013-10-21 21:56:00,
2013-10-21 15:01:00,89.3,21.5,29.38,SSW,196,3.7,5.1,8,-99.99,,,0.00,533.5,rob ver 1A,2013-10-21 22:01:00,
2013-10-21 15:06:00,89.4,21.7,29.38,SW,233,4.6,6.3,8,-99.99,,,0.00,521.2,rob ver 1A,2013-10-21 22:06:00,
2013-10-21 15:11:00,89.2,22.0,29.38,SSW,212,5.8,8.3,8,-99.99,,,0.00,507.8,rob ver 1A,2013-10-21 22:11:00,
2013-10-21 15:16:00,88.8,21.3,29.38,SSW,200,5.0,7.2,8,-99.99,,,0.00,494.8,rob ver 1A,2013-10-21 22:16:00,
2013-10-21 15:21:00,89.1,21.3,29.38,South,186,3.8,6.9,8,-99.99,,,0.00,480.8,rob ver 1A,2013-10-21 22:21:00,
2013-10-21 15:26:00,89.4,21.4,29.38,SW,223,4.0,5.9,8,-99.99,,,0.00,463.2,rob ver 1A,2013-10-21 22:26:00,
2013-10-21 15:32:00,89.2,20.5,29.35,SW,226,4.5,7.1,8,-99.99,,,0.00,449.1,rob ver 1A,2013-10-21 22:32:00,
2013-10-21 15:37:00,89.2,20.0,29.35,SSW,192,3.7,5.9,7,-99.99,,,0.00,433.8,rob ver 1A,2013-10-21 22:37:00,
2013-10-21 15:42:00,89.8,20.5,29.35,SSE,168,2.4,4.0,7,-99.99,,,0.00,417.2,rob ver 1A,2013-10-21 22:42:00,
2013-10-21 15:47:00,89.5,20.4,29.35,SSE,161,4.7,6.0,8,-99.99,,,0.00,401.7,rob ver 1A,2013-10-21 22:47:00,
2013-10-21 15:52:00,88.9,20.5,29.35,SE,136,2.9,5.3,8,-99.99,,,0.00,386.6,rob ver 1A,2013-10-21 22:52:00,
2013-10-21 15:57:00,89.2,21.0,29.35,SSW,199,4.8,6.4,8,-99.99,,,0.00,369.7,rob ver 1A,2013-10-21 22:57:00,
2013-10-21 16:03:00,89.7,21.5,29.35,SSE,155,1.3,1.9,8,-99.99,,,0.00,350.6,rob ver 1A,2013-10-21 23:03:00,
2013-10-21 16:08:00,90.0,20.9,29.35,SSE,157,6.1,8.2,8,-99.99,,,0.00,334.5,rob ver 1A,2013-10-21 23:08:00,
2013-10-21 16:13:00,89.1,20.9,29.35,SSE,153,4.8,5.8,8,-99.99,,,0.00,317.7,rob ver 1A,2013-10-21 23:13:00,
2013-10-21 16:18:00,89.1,20.6,29.35,SSE,147,2.2,3.7,8,-99.99,,,0.00,301.2,rob ver 1A,2013-10-21 23:18:00,
2013-10-21 16:23:00,89.8,20.4,29.35,SSE,150,2.8,3.8,7,-99.99,,,0.00,284.1,rob ver 1A,2013-10-21 23:23:00,
2013-10-21 16:28:00,89.2,20.6,29.35,West,269,2.2,3.2,8,-99.99,,,0.00,264.3,rob ver 1A,2013-10-21 23:28:00,
2013-10-21 16:34:00,89.1,20.6,29.35,SSE,168,2.4,3.3,8,-99.99,,,0.00,246.8,rob ver 1A,2013-10-21 23:34:00,
2013-10-21 16:39:00,89.5,20.5,29.35,South,176,3.4,5.5,7,-99.99,,,0.00,230.2,rob ver 1A,2013-10-21 23:39:00,
2013-10-21 16:44:00,89.3,20.1,29.35,SSW,208,5.2,6.8,7,-99.99,,,0.00,213.5,rob ver 1A,2013-10-21 23:44:00,
2013-10-21 16:49:00,89.3,20.1,29.35,SSW,203,5.8,7.0,7,-99.99,,,0.00,197.6,rob ver 1A,2013-10-21 23:49:00,
2013-10-21 16:54:00,88.9,19.9,29.35,SSW,204,4.6,5.9,7,-99.99,,,0.00,181.1,rob ver 1A,2013-10-21 23:54:00,
2013-10-21 16:59:00,89.0,20.1,29.35,South,176,5.7,6.8,7,-99.99,,,0.00,164.8,rob ver 1A,2013-10-21 23:59:00,
2013-10-21 17:04:00,88.7,20.1,29.35,SSE,162,5.3,8.1,8,-99.99,,,0.00,149,rob ver 1A,2013-10-22 00:04:00,
2013-10-21 17:09:00,88.4,20.6,29.35,South,172,4.0,5.1,8,-99.99,,,0.00,130.5,rob ver 1A,2013-10-22 00:09:00,
2013-10-21 17:15:00,88.4,20.1,29.35,South,172,5.5,7.1,8,-99.99,,,0.00,114.8,rob ver 1A,2013-10-22 00:15:00,
2013-10-21 17:20:00,88.3,20.7,29.35,SSE,164,3.7,4.5,8,-99.99,,,0.00,100.2,rob ver 1A,2013-10-22 00:20:00,
2013-10-21 17:25:00,88.0,20.6,29.35,SSE,167,4.0,4.5,8,-99.99,,,0.00,86.3,rob ver 1A,2013-10-22 00:25:00,
2013-10-21 17:30:00,87.7,21.2,29.35,South,177,3.8,4.4,8,-99.99,,,0.00,72.8,rob ver 1A,2013-10-22 00:30:00,
2013-10-21 17:35:00,87.7,21.7,29.35,South,182,2.3,2.9,8,-99.99,,,0.00,58.66,rob ver 1A,2013-10-22 00:35:00,
2013-10-21 17:40:00,87.5,21.4,29.35,South,179,2.2,3.0,8,-99.99,,,0.00,44.16,rob ver 1A,2013-10-22 00:40:00,
2013-10-21 17:45:00,87.0,21.6,29.35,SSW,199,2.5,3.0,9,-99.99,,,0.00,30.98,rob ver 1A,2013-10-22 00:45:00,
2013-10-21 17:50:00,86.2,21.4,29.35,SSW,203,1.7,2.1,9,-99.99,,,0.00,14.83,rob ver 1A,2013-10-22 00:50:00,
2013-10-21 17:56:00,85.5,21.3,29.35,South,180,1.9,2.3,9,-99.99,,,0.00,6.262,rob ver 1A,2013-10-22 00:56:00,
2013-10-21 18:01:00,84.6,21.8,29.35,SSW,200,2.2,2.5,9,-99.99,,,0.00,3.625,rob ver 1A,2013-10-22 01:01:00,
2013-10-21 18:06:00,83.8,21.6,29.35,SSW,205,2.3,2.8,10,-99.99,,,0.00,1.813,rob ver 1A,2013-10-22 01:06:00,
2013-10-21 18:11:00,83.1,21.1,29.35,South,188,3.2,3.7,10,-99.99,,,0.00,.824,rob ver 1A,2013-10-22 01:11:00,
2013-10-21 18:16:00,82.7,21.0,29.35,South,179,2.5,2.9,10,-99.99,,,0.00,.165,rob ver 1A,2013-10-22 01:16:00,
2013-10-21 18:21:00,82.2,21.5,29.35,SSW,199,2.1,2.3,10,-99.99,,,0.00,0,rob ver 1A,2013-10-22 01:21:00,
2013-10-21 18:26:00,81.8,22.4,29.35,SW,224,2.8,4.2,11,-99.99,,,0.00,0,rob ver 1A,2013-10-22 01:26:00,
2013-10-21 18:31:00,81.4,23.7,29.35,SSW,204,2.2,2.8,11,-99.99,,,0.00,0,rob ver 1A,2013-10-22 01:31:00,
2013-10-21 18:37:00,80.8,23.9,29.38,SSW,207,1.5,2.0,12,-99.99,,,0.00,0,rob ver 1A,2013-10-22 01:37:00,
2013-10-21 18:42:00,80.2,24.2,29.38,South,169,1.8,2.3,12,-99.99,,,0.00,0,rob ver 1A,2013-10-22 01:42:00,
2013-10-21 18:48:00,79.9,23.8,29.38,SSW,194,2.6,3.9,12,-99.99,,,0.00,0,rob ver 1A,2013-10-22 01:48:00,
2013-10-21 18:53:00,79.9,23.9,29.38,South,170,1.5,3.1,12,-99.99,,,0.00,0,rob ver 1A,2013-10-22 01:53:00,
2013-10-21 18:56:00,79.8,23.9,29.38,South,183,2.0,3.0,12,-99.99,,,0.00,0,rob ver 1A,2013-10-22 01:56:00,
2013-10-21 19:01:00,80.0,24.1,29.38,SSW,202,2.1,3.4,12,-99.99,,,0.00,0,rob ver 1A,2013-10-22 02:01:00,
2013-10-21 19:06:00,79.7,24.1,29.38,South,184,1.0,1.6,12,-99.99,,,0.00,0,rob ver 1A,2013-10-22 02:06:00,
2013-10-21 19:11:00,79.3,24.2,29.38,East,91,1.6,2.0,13,-99.99,,,0.00,0,rob ver 1A,2013-10-22 02:11:00,
2013-10-21 19:16:00,79.4,24.9,29.38,SSW,208,3.3,5.3,13,-99.99,,,0.00,0,rob ver 1A,2013-10-22 02:16:00,
2013-10-21 19:22:00,80.0,25.1,29.38,SW,223,3.2,4.0,13,-99.99,,,0.00,0,rob ver 1A,2013-10-22 02:22:00,
2013-10-21 19:27:00,79.1,25.1,29.38,WSW,256,1.5,2.4,13,-99.99,,,0.00,0,rob ver 1A,2013-10-22 02:27:00,
2013-10-21 19:32:00,78.5,24.7,29.38,WSW,255,0.6,1.2,13,-99.99,,,0.00,0,rob ver 1A,2013-10-22 02:32:00,
2013-10-21 19:37:00,78.2,24.9,29.38,North,357,1.3,1.7,13,-99.99,,,0.00,0,rob ver 1A,2013-10-22 02:37:00,
2013-10-21 19:42:00,78.0,24.7,29.38,NNE,32,1.0,1.3,13,-99.99,,,0.00,0,rob ver 1A,2013-10-22 02:42:00,
2013-10-21 19:47:00,78.0,24.1,29.38,WNW,288,0.4,0.8,13,-99.99,,,0.00,0,rob ver 1A,2013-10-22 02:47:00,
2013-10-21 19:52:00,78.0,23.9,29.38,NNE,13,0.2,0.3,13,-99.99,,,0.00,0,rob ver 1A,2013-10-22 02:52:00,
2013-10-21 19:57:00,77.6,23.3,29.38,SSW,197,0.7,1.4,13,-99.99,,,0.00,0,rob ver 1A,2013-10-22 02:57:00,
2013-10-21 20:03:00,77.8,23.2,29.38,WSW,237,0.9,1.1,13,-99.99,,,0.00,0,rob ver 1A,2013-10-22 03:03:00,
2013-10-21 20:08:00,79.0,24.2,29.38,SW,215,1.7,2.1,13,-99.99,,,0.00,0,rob ver 1A,2013-10-22 03:08:00,
2013-10-21 20:13:00,78.8,23.9,29.38,WSW,248,1.0,1.7,13,-99.99,,,0.00,0,rob ver 1A,2013-10-22 03:13:00,
2013-10-21 20:18:00,78.3,24.6,29.38,SW,225,2.0,2.6,13,-99.99,,,0.00,0,rob ver 1A,2013-10-22 03:18:00,
2013-10-21 20:23:00,78.5,25.0,29.38,SW,218,1.5,1.9,13,-99.99,,,0.00,0,rob ver 1A,2013-10-22 03:23:00,
2013-10-21 20:28:00,78.0,24.4,29.38,WSW,247,1.6,2.0,13,-99.99,,,0.00,0,rob ver 1A,2013-10-22 03:28:00,
2013-10-21 20:34:00,76.8,24.1,29.38,NW,317,1.3,1.7,14,-99.99,,,0.00,0,rob ver 1A,2013-10-22 03:34:00,
2013-10-21 20:39:00,76.6,24.0,29.38,NNW,328,1.6,2.2,14,-99.99,,,0.00,0,rob ver 1A,2013-10-22 03:39:00,
2013-10-21 20:44:00,76.0,23.7,29.38,NNW,341,2.6,3.0,14,-99.99,,,0.00,0,rob ver 1A,2013-10-22 03:44:00,
2013-10-21 20:49:00,75.4,23.7,29.41,NNW,339,2.2,2.4,14,-99.99,,,0.00,0,rob ver 1A,2013-10-22 03:49:00,
2013-10-21 20:54:00,75.6,23.6,29.41,NNW,331,2.0,2.3,14,-99.99,,,0.00,0,rob ver 1A,2013-10-22 03:54:00,
2013-10-21 20:59:00,75.6,23.6,29.41,NW,313,1.5,1.7,14,-99.99,,,0.00,0,rob ver 1A,2013-10-22 03:59:00,
2013-10-21 21:01:00,75.5,23.9,29.41,NW,309,1.7,1.8,14,-99.99,,,0.00,0,rob ver 1A,2013-10-22 04:01:00,
2013-10-21 21:06:00,75.5,23.9,29.41,NW,320,1.1,1.2,14,-99.99,,,0.00,0,rob ver 1A,2013-10-22 04:06:00,
2013-10-21 21:12:00,75.4,23.9,29.41,NNW,332,1.1,1.3,14,-99.99,,,0.00,0,rob ver 1A,2013-10-22 04:12:00,
2013-10-21 21:15:00,75.5,23.7,29.41,North,351,1.4,1.6,14,-99.99,,,0.00,0,rob ver 1A,2013-10-22 04:15:00,
2013-10-21 21:20:00,75.5,23.8,29.41,North,349,1.6,2.0,14,-99.99,,,0.00,0,rob ver 1A,2013-10-22 04:20:00,
2013-10-21 21:25:00,75.7,23.5,29.41,North,354,2.5,2.9,14,-99.99,,,0.00,0,rob ver 1A,2013-10-22 04:25:00,
2013-10-21 21:30:00,74.9,23.4,29.41,North,2,2.4,2.7,14,-99.99,,,0.00,0,rob ver 1A,2013-10-22 04:30:00,
2013-10-21 21:35:00,74.3,22.9,29.41,North,9,3.3,3.5,14,-99.99,,,0.00,0,rob ver 1A,2013-10-22 04:35:00,
2013-10-21 21:40:00,72.2,22.2,29.41,NNE,14,3.4,3.6,15,-99.99,,,0.00,0,rob ver 1A,2013-10-22 04:40:00,
2013-10-21 21:45:00,71.2,21.9,29.41,NNE,19,3.4,3.6,15,-99.99,,,0.00,0,rob ver 1A,2013-10-22 04:45:00,
2013-10-21 21:51:00,70.9,22.7,29.41,NNE,17,2.6,2.8,15,-99.99,,,0.00,0,rob ver 1A,2013-10-22 04:51:00,
2013-10-21 21:56:00,70.7,22.5,29.41,NNE,32,3.3,3.5,15,-99.99,,,0.00,0,rob ver 1A,2013-10-22 04:56:00,
2013-10-21 22:01:00,70.2,21.8,29.41,NE,35,2.4,3.2,15,-99.99,,,0.00,0,rob ver 1A,2013-10-22 05:01:00,
2013-10-21 22:06:00,69.5,22.1,29.41,NE,52,2.7,3.2,16,-99.99,,,0.00,0,rob ver 1A,2013-10-22 05:06:00,
2013-10-21 22:11:00,69.8,20.2,29.41,NE,49,4.1,4.5,15,-99.99,,,0.00,0,rob ver 1A,2013-10-22 05:11:00,
2013-10-21 22:16:00,68.8,19.7,29.41,NE,34,3.3,3.6,15,-99.99,,,0.00,0,rob ver 1A,2013-10-22 05:16:00,
2013-10-21 22:22:00,68.7,19.6,29.41,NE,36,3.6,4.0,15,-99.99,,,0.00,0,rob ver 1A,2013-10-22 05:22:00,
2013-10-21 22:27:00,68.0,20.1,29.41,NNE,19,3.8,4.0,16,-99.99,,,0.00,0,rob ver 1A,2013-10-22 05:27:00,
2013-10-21 22:32:00,68.1,22.1,29.41,NNE,26,3.5,4.1,17,-99.99,,,0.00,0,rob ver 1A,2013-10-22 05:32:00,
2013-10-21 22:37:00,68.0,21.5,29.41,NNE,14,3.4,3.7,16,-99.99,,,0.00,0,rob ver 1A,2013-10-22 05:37:00,
2013-10-21 22:42:00,68.0,22.4,29.41,NNE,19,3.3,3.7,17,-99.99,,,0.00,0,rob ver 1A,2013-10-22 05:42:00,
2013-10-21 22:47:00,68.7,22.2,29.41,NNE,20,3.2,3.3,17,-99.99,,,0.00,0,rob ver 1A,2013-10-22 05:47:00,
2013-10-21 22:52:00,68.3,21.8,29.41,North,10,3.8,4.0,16,-99.99,,,0.00,0,rob ver 1A,2013-10-22 05:52:00,
2013-10-21 22:57:00,68.7,21.7,29.41,North,9,3.9,4.2,16,-99.99,,,0.00,0,rob ver 1A,2013-10-22 05:57:00,
2013-10-21 23:03:00,67.6,21.9,29.41,NNE,30,2.5,3.3,17,-99.99,,,0.00,0,rob ver 1A,2013-10-22 06:03:00,
2013-10-21 23:08:00,67.5,22.6,29.41,NE,34,3.0,3.5,18,-99.99,,,0.00,0,rob ver 1A,2013-10-22 06:08:00,
2013-10-21 23:13:00,67.3,22.4,29.41,NE,42,4.3,5.4,17,-99.99,,,0.00,0,rob ver 1A,2013-10-22 06:13:00,
2013-10-21 23:18:00,66.3,20.0,29.41,NE,42,6.1,6.7,16,-99.99,,,0.00,0,rob ver 1A,2013-10-22 06:18:00,
2013-10-21 23:23:00,65.8,18.5,29.41,NE,42,5.5,6.1,15,-99.99,,,0.00,0,rob ver 1A,2013-10-22 06:23:00,
2013-10-21 23:28:00,65.4,18.6,29.41,NE,36,5.5,6.4,16,-99.99,,,0.00,0,rob ver 1A,2013-10-22 06:28:00,
2013-10-21 23:33:00,66.3,17.9,29.41,NNE,24,6.1,6.6,15,-99.99,,,0.00,0,rob ver 1A,2013-10-22 06:33:00,
2013-10-21 23:39:00,66.0,18.2,29.41,NE,44,2.7,3.1,15,-99.99,,,0.00,0,rob ver 1A,2013-10-22 06:39:00,
2013-10-21 23:44:00,66.3,17.9,29.41,NNE,25,3.4,3.9,15,-99.99,,,0.00,0,rob ver 1A,2013-10-22 06:44:00,
2013-10-21 23:49:00,65.7,19.0,29.41,NNE,21,2.3,2.4,16,-99.99,,,0.00,0,rob ver 1A,2013-10-22 06:49:00,
2013-10-21 23:54:00,66.1,18.3,29.41,NNE,14,3.4,4.1,15,-99.99,,,0.00,0,rob ver 1A,2013-10-22 06:54:00,
2013-10-21 23:59:00,65.6,19.0,29.41,NNE,15,4.4,4.7,16,-99.99,,,0.00,0,rob ver 1A,2013-10-22 06:59:00,